[{"header": {"dx": 0.06612293990616946, "dy": 0.0552356325346848, "nx": 98, "ny": 59, "la1": 35.046912555036876, "la2": 31.78801023549047, "lo1": -121.43107172385933, "lo2": -114.95102361305473, "refTime": "2026041710", "parameterCategory": 1, "parameterNumber": 2}, "data": [9.09, 9.61, 9.24, 9.6, 10.0, 9.49, 9.88, 8.68, 8.06, 5.81, 0.0, -7.44, -7.69, -7.78, -8.53, -9.08, -8.93, -9.3, -10.79, -12.35, -12.96, -12.71, -10.4, -9.58, -7.9, -8.22, -6.7, -8.85, -5.4, -0.0, -0.0, 5.8, 6.94, 6.2, 7.27, 8.8, 8.72, 9.21, 9.39, 9.75, 6.95, 7.9, 10.4, 11.87, 13.02, 14.91, 15.8, 15.02, 8.6, 3.81, 2.35, 0.0, 0.0, 0.0, 7.0, 11.06, 15.65, 15.65, 0.0, 0.0, 0.0, 0.0, 15.2, 15.2, 15.2, 15.65, 16.09, 16.09, 16.09, 16.09, 16.09, 15.65, 15.65, 15.49, 15.49, 15.53, 14.66, 14.25, 14.51, 14.47, 13.96, 13.01, 12.14, 11.5, 10.48, 10.09, 11.45, 10.96, 11.18, 10.91, 11.97, 11.57, 10.43, 10.75, 9.22, 6.95, 3.68, 0.0, 8.62, 9.09, 9.61, 9.92, 9.67, 9.12, 9.23, 8.97, 8.43, 7.32, 0.0, -10.43, -9.48, -6.94, -5.8, -8.53, -8.38, -10.35, -10.35, -10.68, -12.89, -12.96, -12.96, -11.6, -7.59, -6.71, -6.97, -8.53, -10.04, -11.2, -10.12, -0.0, -0.0, -0.0, 4.46, 6.32, 7.2, 8.0, 9.11, 9.97, 12.52, 13.41, 10.79, 9.49, 11.53, 14.27, 14.13, 9.77, 5.46, 2.89, 0.0, 4.81, 8.43, 12.65, 14.42, 15.65, 14.84, 13.59, 14.84, 0.0, -4.95, -6.8, -10.75, 15.2, 15.2, 15.65, 16.09, 16.09, 16.09, 16.09, 16.54, 16.09, 16.09, 15.11, 14.75, 14.31, 14.4, 14.25, 14.51, 14.47, 13.96, 13.01, 12.14, 11.5, 10.48, 10.09, 11.45, 10.96, 11.18, 10.91, 11.97, 11.57, 10.43, 10.75, 9.22, 6.95, 3.68, 0.0, 8.2, 8.62, 9.09, 9.37, 9.37, 9.67, 9.73, 8.64, 7.82, 5.99, 2.35, -3.14, -7.69, -4.1, 0.0, 0.0, -6.45, -9.67, -10.48, -11.6, -10.68, -12.04, -12.04, -13.41, -13.59, -7.59, -6.44, -6.44, -9.3, -11.62, -14.75, -15.2, -14.3, -7.9, -0.0, 6.32, 7.07, 8.67, 9.83, 11.62, 11.21, 10.43, 9.48, 9.85, 10.0, 8.88, 6.12, 2.63, 0.0, 6.8, 13.59, 14.42, 14.75, 14.75, 14.75, 14.42, 12.65, 13.99, 14.53, 15.65, 0.0, -6.8, -15.2, 15.2, 10.75, 13.99, 15.18, 15.65, 15.65, 16.09, 15.97, 16.01, 15.65, 15.14, 13.99, 13.48, 13.29, 14.75, 13.75, 13.86, 13.28, 12.45, 11.6, 10.55, 9.86, 10.4, 10.84, 11.02, 11.09, 11.55, 13.58, 13.11, 11.38, 10.22, 9.8, 7.69, 4.81, 0.0, 8.99, 8.99, 9.43, 9.67, 9.67, 9.92, 9.42, 9.73, 8.97, 6.6, 3.93, 0.0, -3.47, -3.04, 0.0, 0.0, 0.0, -9.66, -10.09, -11.78, -11.06, -10.96, -10.75, -10.91, -12.07, -12.71, -8.23, -5.9, -5.46, -11.18, -10.8, -11.09, -14.53, -15.65, -12.52, 10.73, 10.28, 10.73, 11.62, 11.88, 12.56, 11.02, 9.42, 7.8, 7.54, 7.13, 9.8, 14.3, 14.75, 14.75, 14.75, 15.2, 14.75, 14.75, 14.31, 13.19, 13.59, 14.53, 14.53, 15.34, 15.2, 13.59, 14.75, 6.6, 8.18, 10.75, 13.99, 14.53, 16.54, 17.19, 16.48, 15.34, 15.59, 14.75, 14.14, 12.66, 11.64, 12.82, 13.8, 11.97, 10.85, 10.99, 10.94, 9.67, 9.3, 9.3, 11.21, 11.28, 10.32, 13.42, 14.73, 13.46, 11.58, 10.43, 9.48, 10.73, 11.6, 8.85, 8.58, 8.99, 8.99, 9.2, 9.67, 9.67, 9.92, 9.42, 8.4, 6.29, 4.66, 0.0, -3.47, -2.54, -1.98, 0.0, 2.28, -2.93, -10.4, -11.56, -12.83, -12.52, -11.62, -11.62, -10.73, -12.07, -12.52, -11.45, -7.9, 10.28, -4.8, -7.9, -9.3, -10.73, -6.4, 0.0, 4.81, 9.8, 11.38, 10.7, 9.74, 9.12, 9.48, 13.59, 13.86, 13.67, 14.03, 14.03, 14.75, 15.2, 14.75, 14.3, 14.3, 14.75, 14.31, 13.7, 14.9, 15.34, 14.53, 14.99, 14.75, 14.3, 10.12, 6.6, 8.85, 13.23, 15.77, 15.36, 17.97, 19.84, 19.52, 17.88, 18.33, 17.43, 15.65, 12.81, 12.11, 11.29, 11.97, 11.64, 10.37, 10.12, 8.97, 8.35, 6.98, 5.98, 8.53, 9.4, 12.62, 13.88, 14.06, 12.52, 11.42, 9.48, 10.37, 13.01, 12.3, 11.2, 8.58, 8.58, 8.99, 9.48, 9.92, 9.2, 9.43, 8.9, 8.11, 6.47, 4.37, 2.02, 0.0, 0.0, 0.0, 0.0, 0.0, 0.0, -9.42, -11.21, -10.79, -11.45, -13.23, -13.41, -12.52, -12.07, -11.71, -11.45, -5.8, 0.0, 8.8, 7.27, 10.28, -4.8, -1.98, 0.0, 0.0, 4.38, 9.12, 6.95, 4.39, 3.47, 11.53, 14.3, 14.19, 14.64, 14.75, 14.3, 14.3, 14.3, 13.86, 13.86, 13.86, 14.3, 14.47, 14.47, 14.47, 14.31, 14.9, 14.6, 13.86, 13.01, 8.18, 6.8, 12.87, 14.57, 16.19, 16.22, 16.99, 20.12, 21.25, 18.84, 17.39, 18.11, 17.86, 16.17, 12.72, 10.99, 10.37, 11.41, 9.76, 8.64, 7.82, 7.36, 6.24, 4.87, 6.52, 9.8, 12.84, 12.2, 11.38, 12.02, 11.58, 8.1, 9.17, 12.45, 11.6, 10.01, 8.2, 8.58, 9.29, 9.07, 9.48, 9.92, 8.97, 8.65, 7.84, 7.0, 4.0, 1.72, 0.0, 4.1, 0.0, 0.0, 0.0, 0.0, -6.44, -10.48, -10.55, -11.37, -12.74, -12.3, -11.62, -10.4, -8.22, -5.4, -3.04, -2.6, 0.0, 9.83, 6.95, 9.39, 0.0, 0.0, 0.0, 2.63, 6.97, 5.29, 0.0, 0.0, 0.0, 6.8, 12.52, 13.59, 15.87, 15.2, 13.86, 13.86, 14.3, 13.86, 14.3, 14.47, 14.03, 13.59, 14.03, 13.88, 14.3, 13.86, 13.41, 12.72, 10.75, 8.93, 13.76, 14.79, 16.66, 16.09, 15.43, 16.44, 18.39, 16.68, 13.41, 12.36, 13.15, 14.13, 13.59, 12.56, 11.64, 11.31, 9.92, 9.56, 8.56, 7.93, 7.11, 7.03, 7.28, 8.32, 9.89, 10.13, 9.37, 10.59, 10.47, 3.25, 0.0, 10.12, 9.77, 10.12, 8.0, 8.68, 8.68, 9.07, 9.07, 9.48, 8.97, 8.43, 7.84, 6.56, 3.69, 1.53, 0.0, 3.25, 9.8, 6.21, 1.77, 1.9, 0.0, -8.85, -12.52, -11.62, -11.12, -11.09, -8.31, -5.4, -4.48, -3.44, -5.98, -7.9, -6.2, 0.0, 7.9, 10.18, 6.71, 0.0, -1.58, 0.0, 6.94, 6.97, 2.19, 0.0, 0.0, 1.96, 2.89, 7.2, 11.06, 15.78, 14.55, 14.03, 12.14, 13.41, 13.59, 12.87, 12.87, 12.87, 12.87, 13.59, 13.41, 12.96, 12.52, 12.72, 10.75, 11.06, 14.39, 16.48, 16.99, 15.49, 13.99, 14.38, 15.99, 16.02, 12.7, 11.63, 10.75, 10.43, 11.9, 12.25, 12.04, 12.6, 13.83, 11.45, 10.07, 9.95, 9.5, 8.8, 8.01, 7.17, 6.26, 7.08, 7.5, 7.63, -3.25, -12.39, 0.0, 8.24, 9.34, 9.64, 8.68, 8.68, 8.68, 8.68, 9.07, 9.48, 8.55, 8.74, 7.4, 6.74, 4.47, 2.28, 0.0, 0.0, 4.24, 9.17, 6.9, 6.0, 4.81, 12.52, 5.6, -0.0, -12.96, -9.8, -4.98, -4.65, -3.65, -6.7, -8.53, -6.44, -2.28, 0.0, 0.0, 5.4, 5.75, 3.25, 0.0, -4.8, 0.0, 6.2, 2.45, 0.0, -3.04, -7.44, -7.93, -6.2, 0.0, 7.6, 13.8, 14.11, 14.75, 12.96, 13.15, 12.87, 12.87, 12.87, 12.87, 12.79, 12.52, 12.52, 12.52, 14.42, 10.75, 11.06, 16.09, 16.99, 17.43, 15.97, 13.99, 12.27, 14.79, 15.36, 15.06, 13.99, 12.65, 11.64, 10.65, 10.37, 11.97, 13.41, 14.99, 12.72, 11.17, 10.78, 11.01, 10.53, 9.18, 7.4, 6.13, 5.11, 3.56, -12.96, -12.96, -9.48, 3.68, 8.37, 8.53, 8.53, 8.12, 8.33, 8.33, 8.68, 8.68, 9.07, 9.24, 8.33, 7.57, 6.34, 5.26, 4.47, 2.9, 0.0, 0.0, 3.25, 5.46, 3.81, 2.72, 5.8, 12.52, -0.0, 12.96, 13.41, -8.05, -7.24, -5.9, -9.97, -10.47, -5.4, 0.0, 0.0, 0.0, 2.93, 2.82, 4.32, 3.98, 0.0, 11.62, 0.0, -4.48, -8.85, -12.07, -11.62, -11.62, -9.17, 0.0, 2.81, 7.0, 14.84, 14.75, 14.31, 13.28, 12.87, 12.87, 13.57, 13.15, 12.83, 12.52, 12.52, 14.75, 13.76, 12.33, 11.38, 14.39, 17.43, 17.88, 16.09, 12.87, 8.58, 11.52, 13.99, 14.86, 15.27, 14.7, 12.39, 11.16, 10.25, 10.37, 11.69, 14.57, 14.79, 14.79, 13.02, 11.18, 10.81, 10.9, 11.76, 12.27, 12.3, 12.58, 10.01, 12.52, 0.0, 2.32, 6.56, 8.37, 7.93, 8.12, 8.12, 8.33, 8.33, 9.32, 9.07, 8.84, 8.11, 7.4, 6.81, 5.81, 5.99, 5.99, 2.81, 0.0, 0.0, 1.47, 1.89, 0.0, 0.0, -15.65, -15.65, -14.75, -12.52, -12.3, -8.58, -8.23, -7.87, -7.27, -2.45, 0.0, 0.0, 0.0, 4.4, 4.4, 5.2, 5.2, 0.0, -11.62, -12.52, -12.71, -12.52, -11.62, -12.07, -11.62, -11.62, -5.4, -5.6, -9.17, -13.41, 14.75, 16.09, 15.61, 14.94, 14.94, 15.69, 15.9, 13.72, 11.18, 13.23, 17.43, 12.64, 11.7, 11.38, 11.38, 14.3, 17.85, 16.96, 15.2, 5.8, 7.69, 12.27, 14.13, 14.86, 14.19, 12.18, 9.67, 9.76, 11.07, 11.68, 12.76, 14.33, 14.2, 15.71, 14.2, 12.99, 13.38, 14.19, 13.99, 13.41, 12.47, 12.52, 12.39, 10.01, 5.86, 6.79, 7.19, 6.67, 8.12, 8.12, 8.33, 8.96, 9.32, 8.68, 8.84, 7.74, 7.4, 6.99, 5.98, 6.62, 7.76, 7.42, 4.81, 0.0, 0.0, 0.0, -1.33, -7.69, -14.3, -14.75, -14.3, -15.65, -13.41, -12.52, -12.07, -8.49, -9.6, -5.95, -5.0, -5.95, -10.73, -10.28, 0.0, 0.0, -3.39, -11.03, -11.4, -12.07, -12.35, -11.71, -5.2, -0.0, -4.8, -9.2, -12.07, -11.2, -12.96, 0.0, 0.0, 7.4, 16.79, 20.12, 19.22, 19.22, 20.12, 18.78, 11.95, 13.59, 14.88, 8.2, 10.46, 5.98, 3.16, 11.53, 17.88, 20.39, 19.84, 16.66, 11.52, 11.75, 12.65, 13.59, 11.6, 10.4, 10.04, 12.27, 11.94, 11.94, 12.46, 12.57, 13.15, 16.2, 17.43, 17.85, 15.35, 13.13, 13.62, 13.32, 12.09, 11.23, 11.03, 10.62, 10.01, 9.17, 7.78, 12.96, 8.74, 8.74, 8.74, 8.96, 8.96, 9.32, 8.47, 8.61, 7.74, 7.2, 6.45, 6.62, 7.36, 9.16, 9.73, 6.14, 0.0, 0.0, -1.53, -9.8, -14.3, -14.75, -15.2, -14.6, -14.16, -13.15, -11.99, -10.79, -11.45, -9.76, -10.38, -11.18, -10.52, -9.97, -10.28, -10.28, -10.08, -11.18, -11.18, -11.06, -11.46, -11.4, -6.2, -0.0, -3.25, -4.8, -11.62, -8.53, -3.14, 0.0, 0.0, 0.0, 0.0, 0.0, 0.0, 4.45, 11.16, 20.39, 14.39, 11.45, -0.0, 4.01, 3.42, -0.0, -0.0, 9.0, 21.2, 24.55, 24.59, 24.78, 21.49, 19.31, 13.39, 10.62, 8.43, 10.04, 12.56, 13.23, 12.65, 12.63, 12.36, 12.29, 11.86, 12.19, 14.47, 17.01, 17.36, 14.88, 13.18, 12.56, 12.39, 10.79, 10.52, 10.73, 11.2, 11.72, 11.6, 11.99, 8.4, 8.4, 8.96, 8.96, 8.96, 8.96, 8.47, 8.61, 7.95, 7.4, 7.2, 7.36, 7.36, 8.7, 9.92, 10.0, 5.51, 0.0, -2.0, -8.68, -14.75, -15.2, -15.2, -15.2, -15.65, -15.12, -14.9, -14.23, -13.63, -12.96, -10.66, -10.73, -11.18, -9.83, -9.83, -9.83, -9.54, -10.28, -10.08, -10.18, -10.58, -10.08, -9.6, -4.6, -0.0, -0.0, 9.39, 0.0, -2.82, 0.0, 0.0, 0.0, 0.0, 0.0, 0.0, 0.0, 0.0, 3.77, 12.87, 13.86, -9.8, -0.0, -0.0, -0.0, -0.0, 16.54, 12.33, 15.62, 17.17, 19.55, 22.48, 21.49, 16.75, 8.82, 9.3, 12.13, 13.6, 13.82, 13.05, 12.57, 12.01, 12.24, 11.94, 11.95, 11.5, 13.01, 14.42, 15.25, 13.12, 13.23, 12.36, 9.84, 10.53, 11.2, 12.15, 12.21, 12.04, 12.71, 8.4, 8.4, 8.62, 8.62, 8.96, 9.18, 9.32, 8.47, 8.61, 7.74, 7.89, 7.67, 8.28, 8.28, 9.61, 10.46, 8.97, 7.08, 2.16, 0.0, -9.17, -14.39, -15.49, -15.65, -15.65, -15.65, -15.14, -14.69, -14.25, -13.79, -12.52, -10.28, -11.18, -10.28, -10.28, -10.28, -10.73, -9.83, -10.6, -9.33, -9.55, -10.18, -9.83, -9.83, -6.95, -6.95, -6.95, -7.27, 10.73, -3.53, 0.0, 0.0, 0.0, 0.0, 9.83, 7.59, 0.0, 2.28, 3.59, 17.43, -9.17, -9.17, -0.0, 14.3, -14.75, 0.0, 5.23, 5.37, 5.09, 14.22, 19.95, 20.36, 17.63, 9.69, 9.89, 11.18, 12.33, 13.23, 13.26, 12.78, 13.12, 12.78, 13.2, 11.42, 11.26, 10.75, 11.6, 12.57, 12.7, 14.03, 14.85, 11.58, 9.9, 11.04, 12.33, 11.6, 11.6, 11.6, 8.97, 8.97, 8.62, 8.62, 8.62, 9.18, 8.96, 8.68, 8.61, 8.39, 7.89, 7.89, 7.89, 8.77, 9.42, 9.87, 9.67, 10.0, 8.68, 6.12, 0.0, -7.6, -14.18, -15.61, -15.65, -15.65, -15.2, -15.2, -15.2, -14.75, -14.3, -12.96, -10.28, -10.73, -10.28, -8.0, -7.27, -8.55, -9.6, -9.55, -8.72, -8.91, -10.28, -8.8, -8.8, -4.2, -4.4, -4.6, -7.27, -10.28, 11.18, 0.0, 11.62, -0.0, -0.0, -0.0, 10.28, 5.2, 14.75, 15.65, 12.07, 11.62, 11.62, 12.07, 12.07, 0.0, 0.0, 0.0, -14.39, 19.67, 17.85, 14.82, 13.84, 12.73, 9.82, 12.18, 12.51, 12.02, 14.66, 16.39, 17.78, 17.97, 16.33, 13.7, 11.14, 10.32, 10.47, 10.37, 10.55, 11.75, 13.42, 10.48, 10.48, 11.99, 11.6, 10.63, 10.73, 10.73, 8.97, 8.97, 9.2, 8.62, 8.62, 9.18, 9.18, 9.32, 8.84, 8.61, 8.53, 8.53, 8.77, 8.77, 9.42, 9.42, 9.19, 9.67, 9.36, 9.67, 7.8, 2.4, -6.31, -14.18, -15.47, -15.97, -16.09, -16.09, -16.09, -16.09, -15.65, -14.75, -12.96, -12.07, -8.48, -6.64, -8.43, -9.6, -9.2, -9.33, -9.83, -8.94, -9.2, -6.32, -6.95, -4.4, -4.6, -7.27, -7.27, -0.0, -0.0, -0.0, 11.18, 10.73, 10.73, 10.28, 10.28, 7.59, 8.53, 9.17, 12.52, 11.18, 10.73, -0.0, -0.0, 10.28, 11.62, -5.2, -7.69, 0.0, 12.15, 11.32, 10.73, 10.42, 2.94, -13.28, -8.6, 0.0, 13.91, 18.78, 17.88, 17.43, 16.48, 14.11, 13.02, 10.58, 11.03, 11.6, 11.72, 11.69, 12.45, 10.18, 8.85, 10.37, 11.28, 10.15, 10.12, 10.12, 8.97, 8.97, 9.2, 9.2, 8.62, 9.18, 9.18, 9.32, 9.09, 9.23, 8.77, 8.53, 8.77, 8.77, 9.42, 9.61, 10.13, 10.63, 9.42, 9.49, 9.92, 9.0, 4.54, -3.16, -8.93, -13.39, -14.79, -15.93, -16.09, -16.09, -15.65, -15.05, -14.11, -11.4, -8.58, -7.27, -8.43, -9.97, -9.54, -9.83, -9.83, -9.83, -9.83, -7.27, -7.27, -7.27, -0.0, -0.0, -0.0, -0.0, -0.0, -0.0, 10.28, 7.27, 10.28, 10.28, 10.28, 9.6, 10.0, 7.9, 12.07, 11.62, 10.73, -0.0, -0.0, -0.0, -0.0, 10.28, 0.0, 1.94, 9.0, 10.91, 9.55, 0.0, -16.91, -13.59, -17.88, 0.0, 3.86, 11.27, 12.33, 14.55, 15.33, 10.63, 10.01, 9.69, 10.03, 11.6, 10.85, 11.44, 11.9, 10.12, 7.56, 8.12, 11.34, 9.96, 9.62, 9.62, 9.5, 9.5, 8.97, 8.97, 9.55, 9.55, 9.18, 9.55, 9.32, 9.47, 8.99, 9.37, 9.37, 9.62, 9.17, 10.77, 9.61, 9.61, 9.66, 10.69, 12.36, 12.33, 9.92, 4.12, 0.0, 0.0, 0.0, -6.8, -14.84, -13.67, -14.3, -14.03, -13.01, -10.8, -8.94, -7.59, -8.55, -10.32, -11.18, -10.73, -9.83, -10.28, -11.18, -11.18, -8.22, -0.0, -0.0, -0.0, -0.0, -0.0, -0.0, -0.0, -0.0, 7.27, 4.6, 9.2, 9.2, 10.0, 10.8, 11.62, 11.62, 11.62, 11.18, -0.0, -0.0, -0.0, -0.0, 10.28, 9.6, 12.27, 16.96, 20.02, 23.25, 24.0, 17.97, 16.54, 5.09, 0.0, 0.0, 4.23, 9.67, 10.77, 10.05, 9.66, 10.04, 9.1, 9.92, 9.59, 10.55, 10.3, 11.29, 10.73, 8.53, 7.36, 9.32, 10.12, 9.8, 9.8, 9.5, 9.5, 9.5, 8.97, 9.55, 9.55, 9.55, 9.55, 9.92, 10.05, 9.62, 9.37, 9.37, 10.05, 10.05, 10.22, 10.22, 9.09, 9.0, 10.59, 12.33, 12.57, 10.61, 8.97, 3.16, 3.07, 2.89, 0.0, -6.2, -10.79, -12.52, -12.52, -11.45, -11.45, -9.67, -8.58, -9.2, -9.96, -10.41, -10.28, -10.73, -10.73, -10.0, -7.9, -7.9, -0.0, -0.0, -0.0, -0.0, -0.0, -0.0, -0.0, -0.0, -0.0, 4.4, 6.95, 9.3, 8.93, 10.18, 11.62, 10.0, 10.73, 10.73, -0.0, -0.0, -0.0, -0.0, 9.3, 11.91, 13.01, 16.05, 19.08, 23.67, 26.24, 20.87, 14.91, 10.47, 7.2, 3.24, 4.55, 6.35, 8.62, 9.28, 7.25, 9.02, 11.5, 13.01, 12.96, 10.62, 10.19, 10.18, 9.97, 9.59, 7.62, 8.15, 10.17, 9.87, 9.87, 9.5, 9.5, 9.5, 9.84, 9.84, 9.31, 9.55, 9.55, 9.92, 10.31, 10.19, 9.92, 9.92, 10.61, 10.19, 10.61, 10.22, 9.09, 8.4, 8.25, 10.46, 10.02, 9.66, 8.64, 5.98, 3.16, 1.83, 0.0, -2.54, -6.7, -10.4, -11.62, -11.62, -10.4, -8.22, -9.3, -9.3, -8.93, -10.18, -10.0, -7.9, -7.9, -0.0, -0.0, -0.0, 12.07, -0.0, 10.28, 10.28, -0.0, -0.0, -0.0, -0.0, -0.0, 4.8, 5.7, 7.9, 6.71, 11.03, 11.18, 0.0, 11.18, -0.0, -0.0, -0.0, -0.0, 3.39, 8.53, 10.12, 11.28, 13.02, 15.61, 21.77, 25.03, 18.87, 14.19, 9.67, 9.6, 5.65, 4.18, 5.49, 7.67, 7.92, 9.48, 6.2, 3.25, 3.25, 9.48, 13.41, 11.91, 10.61, 9.92, 10.58, 8.83, 7.34, 8.85, 9.06, 9.06, 9.26, 9.5, 9.5, 9.84, 9.84, 9.84, 9.84, 9.55, 10.47, 10.21, 10.32, 10.43, 10.43, 11.13, 11.13, 11.13, 10.61, 10.47, 9.94, 10.22, 9.81, 9.62, 8.68, 8.16, 8.28, 7.4, 4.42, 0.0, 0.0, 0.0, 0.0, 0.0, 11.62, 11.62, -0.0, -5.0, -5.2, -5.2, -0.0, -0.0, -0.0, -0.0, -0.0, -0.0, -0.0, -0.0, -0.0, 9.83, 10.28, -0.0, -0.0, -0.0, -0.0, -0.0, -0.0, 3.53, 5.2, 4.65, 6.45, 10.73, 0.0, -0.0, -0.0, -0.0, -0.0, -0.0, 3.68, 5.4, 4.1, 2.89, 2.21, 10.66, 19.99, 23.99, 4.78, 5.89, 8.25, 9.66, 9.6, 8.28, 7.0, 6.72, 3.16, 15.2, 10.12, 13.41, 13.41, 14.03, 13.19, 11.45, 10.28, 9.89, 11.29, 12.79, 7.93, 10.12, 9.44, 9.44, 9.26, 9.26, 9.26, 10.34, 10.34, 9.84, 10.21, 10.21, 10.21, 10.21, 10.8, 10.89, 10.89, 11.29, 11.59, 11.59, 11.13, 11.25, 11.25, 12.01, 11.7, 11.38, 9.22, 8.94, 9.06, 10.18, 8.93, 9.66, 8.43, 10.12, 11.99, 11.6, 12.07, 11.62, 8.22, 8.22, 5.2, 5.2, 5.2, 5.2, 8.22, 8.22, 8.22, 8.22, 6.45, 3.53, -0.0, 9.39, 9.39, 10.28, -0.0, -0.0, -0.0, -0.0, -0.0, -0.0, -0.0, 2.13, 3.14, 6.64, 9.39, -0.0, -0.0, -0.0, -0.0, -0.0, 2.82, 2.71, -0.0, -2.06, -3.36, 8.0, 26.37, 13.86, -2.54, 1.04, 4.36, 6.09, 8.43, 9.49, 8.31, 8.05, 3.79, 0.0, 2.89, 5.15, 7.13, 9.31, 10.75, 11.6, 10.19, 10.09, 13.88, 10.12, 10.12, 10.12, 10.12, 10.12, 9.26, 9.26, 9.26, 9.26, 10.34, 10.7, 10.7, 10.21, 10.21, 10.59, 10.8, 10.89, 11.31, 11.7, 11.59, 12.42, 12.01, 11.7, 11.7, 12.45, 13.36, 13.11, 12.11, 11.36, 10.12, 10.43, 11.54, 12.02, 13.99, 14.11, 14.03, 13.59, 12.96, 12.52, 11.62, 10.84, 10.84, 10.0, 10.4, 10.4, 9.67, 9.67, 9.67, 9.67, 8.22, 6.2, 8.85, 11.18, 10.73, 11.18, 8.22, 7.9, 7.59, -0.0, -0.0, -0.0, -0.0, -0.0, -0.0, 8.22, 8.0, -0.0, -0.0, -0.0, -0.0, -0.0, 2.93, 3.96, -0.0, -0.0, -5.0, 17.63, 25.42, 28.16, 13.76, 13.41, 3.25, 5.11, 7.16, 8.16, 8.51, 8.31, 6.6, 3.1, 1.47, 2.64, 4.66, 6.99, 9.49, 12.87, 10.82, 13.41, 9.8, 12.39, 13.57, 10.12, 8.66, 8.66, 9.74, 9.74, 9.74, 10.08, 10.08, 10.08, 11.16, 10.7, 11.08, 11.08, 10.8, 11.31, 11.31, 11.7, 11.7, 12.42, 12.09, 12.5, 12.5, 12.92, 13.26, 13.36, 13.6, 13.39, 12.45, 11.64, 12.27, 12.51, 13.59, 13.81, 14.18, 14.16, 13.41, 12.96, 12.52, 11.62, 11.02, 10.96, 10.96, 11.4, 11.4, 10.4, 10.0, 10.0, 10.0, 9.6, 11.28, 10.52, 9.54, 9.54, 8.93, 8.85, 7.59, 7.59, -0.0, -0.0, -0.0, -0.0, -0.0, 5.6, 10.0, 7.81, 4.4, -0.0, -0.0, -0.0, 2.93, 2.37, 2.37, 8.22, 13.01, 13.99, 21.9, 27.24, 26.14, 18.84, 16.69, 15.65, 8.94, 6.51, 7.44, 8.15, 7.89, 4.98, 1.83, 1.47, 3.88, 5.81, 0.0, -7.0, -0.0, 6.6, 14.3, 14.75, 13.01, 11.88, 11.09, 11.09, 9.49, 9.49, 9.81, 10.08, 10.08, 10.08, 10.87, 11.24, 11.53, 11.53, 11.62, 11.62, 11.31, 12.07, 12.07, 12.45, 12.45, 12.84, 13.23, 13.23, 14.0, 13.7, 14.13, 14.36, 13.78, 13.59, 12.95, 13.02, 13.28, 13.7, 13.96, 13.77, 13.41, 13.41, 12.52, 12.07, 11.62, 11.06, 11.02, 11.02, 11.02, 11.46, 10.38, 10.38, 9.96, 9.96, 11.46, 10.14, 9.7, 9.64, 10.38, 10.0, 11.2, 8.53, 7.9, 4.8, -0.0, -0.0, -0.0, -0.0, 8.53, 10.04, 7.51, 5.46, -0.0, -0.0, 3.04, 2.45, 7.78, 11.2, 12.07, 14.3, 16.99, 23.67, 25.21, 23.06, 19.19, 17.15, 11.92, 4.72, 6.0, 7.49, 9.73, 7.34, 2.35, 2.57, 2.5, 0.0, -8.18, -10.75, 0.0, 16.54, 14.11, 14.53, 12.87, 14.03, 13.44, 13.44, 9.81, 9.81, 9.81, 10.08, 10.08, 10.43, 10.87, 10.87, 11.64, 12.01, 12.01, 12.01, 11.7, 12.07, 12.4, 12.77, 12.45, 12.84, 13.51, 13.51, 13.89, 14.03, 14.42, 14.59, 14.58, 14.38, 13.97, 13.77, 13.57, 13.44, 13.19, 13.23, 12.92, 12.91, 12.52, 12.52, 12.52, 12.07, 12.07, 11.62, 11.09, 11.53, 11.53, 10.62, 9.89, 11.06, 11.06, 10.18, 9.74, 9.7, 10.58, 10.38, 9.55, 9.2, 10.0, 7.59, 7.59, -0.0, -6.64, -0.0, 8.53, 8.94, 10.0, 9.6, 8.85, 5.2, 3.82, 7.19, 11.6, 12.71, 12.96, 13.41, 14.75, 16.93, 18.78, 24.71, 23.18, 19.15, 12.96, 3.11, 3.97, 6.43, 8.14, 7.78, 6.2, 4.66, 0.0, -15.65, -13.59, -14.75, 0.0, 7.4, 13.95, 13.23, 13.59, 13.88, 13.88, 13.88, 9.81, 9.81, 9.81, 10.08, 10.87, 10.87, 10.87, 10.87, 11.64, 12.01, 12.37, 12.74, 12.74, 12.74, 13.11, 12.77, 13.14, 13.14, 13.51, 13.51, 13.89, 14.26, 14.42, 14.39, 14.74, 14.65, 14.11, 14.51, 14.25, 14.03, 13.55, 13.72, 13.25, 12.92, 12.47, 12.52, 12.52, 12.52, 12.07, 12.07, 11.62, 11.57, 11.11, 10.22, 9.6, 10.66, 10.22, 10.2, 9.76, 10.18, 11.02, 10.58, 9.96, 9.55, 9.6, 11.03, 10.0, 10.73, -7.27, -0.0, 7.9, 10.6, 10.84, 11.84, 10.4, 6.94, 11.16, 12.52, 12.07, 12.96, 14.3, 14.3, 13.33, 13.59, 15.14, 19.61, 23.48, 19.17, 13.86, 6.17, 1.39, 4.43, 7.11, 7.82, 7.51, 6.2, 0.0, -3.79, -11.06, -14.75, -10.43, 0.0, 13.23, 15.19, 13.76, 13.99, 13.59, 13.59, 10.25, 10.25, 10.25, 10.59, 10.87, 10.87, 10.87, 11.24, 11.64, 11.64, 12.37, 12.74, 13.05, 13.41, 13.11, 13.14, 13.14, 13.51, 13.51, 13.89, 13.89, 13.87, 14.22, 14.56, 14.47, 14.75, 14.58, 14.51, 14.31, 14.47, 14.03, 13.74, 13.72, 13.25, 12.93, 12.52, 12.52, 12.52, 12.07, 12.07, 11.62, 11.62, 11.12, 12.07, 11.84, 10.08, 9.34, 9.83, 10.28, 10.28, 11.18, 10.58, 10.14, 10.08, 10.52, 10.52, 12.07, 11.62, 10.73, 11.18, 11.18, 11.18, 12.07, 12.52, 10.8, 9.17, 11.88, 12.52, 5.2, 8.22, 13.59, 14.75, 13.77, 12.25, 11.57, 14.91, 17.82, 16.88, 18.21, 16.66, 2.45, 2.82, 5.33, 6.7, 8.61, 9.48, 6.9, 2.89, 0.0, -10.75, -14.75, 15.2, 15.65, 16.09, 16.99, 16.99, 16.54, 16.54, 10.25, 10.25, 10.59, 10.59, 10.87, 10.87, 11.64, 11.64, 11.64, 11.64, 12.37, 13.05, 13.05, 13.41, 13.77, 13.41, 13.76, 13.76, 14.11, 13.73, 14.07, 14.22, 14.3, 14.58, 14.47, 14.33, 14.58, 14.79, 14.31, 14.5, 14.06, 14.19, 13.74, 13.28, 12.93, 12.48, 12.52, 12.52, 12.07, 12.07, 12.07, 11.62, 11.62, 10.73, 11.18, 11.62, 11.18, 10.28, 10.28, 11.18, 11.18, 10.28, 10.28, 10.14, 10.52, 10.52, 9.64, 10.96, 11.62, 11.18, 10.73, 11.18, 12.07, 11.62, 6.7, 8.85, 11.16, 13.88, 7.9, 3.11, 8.93, 13.28, 15.87, 16.99, 15.02, 14.59, 14.86, 13.39, 16.02, 19.91, 16.81, 5.04, 4.55, 5.86, 6.45, 10.12, 9.8, 8.58, 0.0, -14.75, -14.75, 15.65, 15.65, 15.65, 16.09, 17.43, 17.43, 17.43, 10.59, 10.59, 10.59, 10.59, 11.34, 11.64, 11.64, 11.64, 11.7, 12.04, 12.37, 12.37, 13.05, 13.41, 14.02, 13.65, 13.61, 14.31, 14.11, 14.46, 14.39, 14.3, 14.3, 14.58, 14.42, 14.42, 14.21, 14.36, 14.09, 14.53, 14.53, 14.19, 14.19, 13.74, 13.38, 12.93, 12.48, 12.52, 12.52, 12.07, 12.07, 12.07, 11.62, 11.18, 10.73, 12.07, 12.07, 10.73, 10.28, 11.18, 10.73, 10.28, 10.28, 10.73, 10.73, 10.73, 10.14, 11.46, 10.73, 11.18, 11.18, 11.28, 12.07, 8.22, 8.53, 8.22, 9.97, 11.12, 11.71, 10.28, 9.39, 9.58, 13.68, 21.35, 20.91, 16.96, 13.01, 10.92, 13.95, 18.16, 20.02, 12.01, 6.47, 6.4, 7.49, 9.62, 11.9, 14.11, 14.03, 14.31, 13.99, 14.75, 14.75, 15.34, 15.65, 16.09, 16.82, 16.82, 10.3, 10.3, 10.99, 10.99, 11.34, 11.34, 11.34, 11.7, 12.04, 12.04, 12.04, 12.74, 13.05, 13.41, 14.02, 13.65, 13.61, 13.93, 14.31, 14.24, 14.14, 14.42, 14.42, 14.26, 14.42, 14.42, 14.21, 13.92, 15.39, 13.62, 14.09, 14.19, 14.19, 13.75, 13.83, 13.38, 12.93, 12.93, 12.48, 12.52, 12.07, 12.07, 11.62, 11.62, 11.18, 11.18, 11.18, 10.73, 10.73, 11.18, 10.73, 10.28, 10.73, 10.73, 10.28, 10.28, 11.18, 11.18, 10.62, 10.28, 12.07, 11.62, 11.03, 7.9, 8.22, 10.0, 9.2, 10.4, 11.62, 10.8, 7.27, 6.7, 11.88, 17.98, 28.39, 20.12, 12.27, 5.2, 9.8, 15.78, 17.16, 16.6, 13.26, 11.06, 11.77, 14.07, 15.57, 14.55, 13.75, 13.32, 13.59, 13.88, 14.75, 14.99, 14.99, 15.49, 15.93, 15.93, 10.3, 10.3, 10.69, 11.34, 11.34, 11.34, 12.04, 12.04, 12.04, 12.4, 12.4, 12.71, 13.41, 13.41, 14.02, 13.65, 13.98, 13.93, 13.93, 14.24, 14.14, 14.14, 14.01, 14.26, 14.26, 13.99, 14.21, 13.78, 13.49, 14.95, 13.15, 13.62, 13.75, 13.75, 13.74, 13.74, 13.38, 13.38, 12.93, 12.48, 12.48, 12.52, 12.07, 11.62, 11.18, 11.18, 11.18, 10.73, 10.73, 10.73, 10.28, 10.28, 11.18, 10.73, 10.28, 10.73, 10.73, 10.73, 10.28, 10.73, 10.73, 10.73, 11.03, 9.6, 7.9, 9.3, 9.6, 8.23, 10.4, 10.37, 8.53, 8.59, 11.18, 16.09, 28.16, 24.07, 18.33, 0.0, 3.81, 11.93, 15.18, 16.48, 17.64, 17.74, 16.76, 16.54, 16.05, 15.08, 14.07, 13.01, 12.46, 13.23, 13.86, 14.3, 14.3, 15.05, 15.2, 15.2, 10.69, 10.69, 10.69, 11.03, 11.34, 11.34, 12.04, 12.04, 12.4, 12.4, 12.71, 13.06, 13.06, 13.41, 13.65, 13.98, 13.61, 13.93, 13.93, 13.85, 14.14, 13.74, 14.01, 14.01, 13.75, 13.99, 13.57, 13.57, 14.21, 13.92, 13.05, 13.18, 13.18, 13.62, 13.74, 13.74, 13.74, 13.72, 13.38, 12.93, 12.93, 12.48, 12.48, 12.07, 11.62, 11.14, 11.18, 10.73, 10.73, 10.73, 10.73, 11.18, 10.73, 10.28, 10.28, 10.28, 10.28, 9.83, 10.28, 10.73, 12.52, 10.6, 10.6, 10.0, 7.27, 7.59, 7.59, 6.7, 8.22, 7.51, 8.01, 10.01, 12.35, 15.2, 23.66, 25.85, 21.4, 18.91, 14.95, 13.12, 14.47, 15.77, 16.48, 16.84, 16.94, 16.07, 16.09, 15.18, 14.27, 13.36, 12.44, 12.42, 12.42, 13.41, 13.41, 14.75, 15.2, 15.2, 10.69, 10.69, 10.69, 11.03, 11.03, 11.7, 12.04, 12.04, 12.4, 12.71, 12.71, 13.06, 13.06, 13.77, 13.65, 13.98, 13.93, 13.93, 14.24, 14.24, 14.14, 13.74, 14.01, 14.01, 13.75, 13.75, 13.57, 13.57, 13.78, 13.78, 13.92, 13.49, 13.01, 13.18, 13.15, 13.59, 13.74, 13.72, 13.28, 13.38, 13.37, 12.93, 12.48, 12.03, 12.03, 11.58, 11.14, 11.14, 11.18, 10.73, 10.73, 11.18, 10.73, 10.28, 10.73, 10.28, 9.83, 9.83, 9.83, 10.22, 9.76, 11.28, 10.18, 7.9, 7.9, 7.9, 6.44, 5.75, 6.98, 8.53, 8.85, 11.88, 13.75, 15.61, 19.67, 21.34, 19.51, 18.2, 19.95, 19.18, 15.35, 13.74, 13.51, 14.19, 15.04, 14.57, 14.68, 14.72, 13.41, 12.52, 12.47, 12.14, 12.14, 12.42, 12.96, 12.96, 14.75, 14.75, 10.39, 10.39, 11.03, 11.03, 11.03, 11.38, 12.04, 12.04, 12.4, 12.71, 13.06, 13.06, 13.06, 13.65, 13.65, 13.98, 13.93, 14.24, 14.24, 14.54, 14.14, 13.74, 14.01, 13.6, 13.75, 13.75, 13.57, 13.57, 13.78, 13.72, 13.72, 13.92, 13.49, 13.18, 13.18, 13.15, 13.15, 13.28, 13.28, 13.28, 13.25, 12.93, 12.93, 12.48, 12.03, 12.03, 11.58, 11.58, 11.14, 11.18, 10.73, 10.73, 10.73, 10.73, 10.28, 9.83, 9.83, 9.83, 9.83, 10.22, 10.22, 8.67, 10.18, 8.55, 5.7, 7.9, 7.27, 7.59, 7.9, 7.9, 10.37, 9.96, 14.65, 16.41, 19.09, 17.4, 17.14, 19.02, 20.97, 21.84, 20.09, 15.36, 10.12, 10.55, 11.72, 12.18, 12.58, 12.08, 12.31, 12.96, 12.96, 12.3, 12.3, 12.83, 12.52, 12.96, 13.86, 13.86, 10.72, 10.72, 11.03, 11.03, 11.03, 11.72, 12.04, 12.04, 12.4, 12.71, 13.06, 13.06, 13.41, 13.41, 13.65, 13.98, 13.93, 14.24, 14.24, 14.54, 14.14, 14.01, 14.01, 13.84, 13.84, 13.75, 13.57, 13.57, 13.57, 13.72, 13.72, 13.92, 13.92, 13.44, 13.62, 13.18, 13.15, 13.15, 13.28, 13.28, 13.28, 12.81, 12.48, 12.96, 11.14, 12.03, 12.03, 11.58, 11.58, 11.13, 11.18, 10.73, 10.73, 10.73, 9.83, 9.83, 9.83, 9.39, 9.77, 9.77, 9.6, 9.11, 9.75, 6.95, 7.59, 9.3, 8.18, 8.55, 5.95, 7.59, 8.22, 9.96, 13.02, 16.79, 20.24, 17.85, 13.81, 16.86, 22.26, 22.33, 19.65, 17.4, 15.08, 9.17, 9.42, 11.26, 12.25, 12.46, 12.83, 12.96, 12.96, 12.72, 12.72, 13.23, 12.96, 12.96, 13.41, 13.41, 10.72, 10.72, 10.72, 11.03, 11.38, 11.72, 11.72, 12.07, 12.4, 12.4, 13.06, 12.7, 13.05, 13.05, 13.65, 13.61, 13.61, 14.24, 14.24, 14.54, 14.14, 14.42, 14.01, 13.84, 13.84, 13.42, 13.57, 13.57, 13.57, 13.78, 13.72, 13.92, 13.92, 13.92, 13.62, 13.62, 13.18, 13.15, 13.29, 13.28, 13.28, 12.83, 12.37, 12.96, 11.14, 12.03, 11.93, 11.91, 11.58, 11.13, 11.13, 10.73, 10.73, 10.28, 9.83, 9.83, 9.39, 9.39, 9.39, 9.77, 9.77, 9.11, 10.41, 8.4, 8.18, 7.59, 7.59, 7.27, 7.59, 7.9, 7.9, 9.17, 12.65, 16.02, 22.41, 21.39, 14.71, 14.61, 18.46, 19.27, 16.89, 15.2, 15.2, 14.66, 11.09, 10.73, 11.88, 13.15, 13.23, 13.15, 13.41, 13.41, 13.41, 13.41, 13.41, 12.96, 13.34, 13.41, 10.72, 10.72, 10.72, 11.06, 11.72, 11.72, 11.72, 12.07, 12.07, 12.07, 12.7, 12.7, 13.41, 13.41, 13.41, 13.98, 13.98, 13.93, 14.24, 13.85, 14.14, 13.74, 14.01, 13.6, 13.84, 13.42, 13.64, 13.57, 13.57, 13.78, 13.78, 13.72, 13.92, 13.92, 13.88, 14.06, 13.62, 13.18, 13.29, 13.29, 13.28, 12.83, 12.81, 11.93, 12.86, 11.59, 11.93, 11.91, 11.46, 11.13, 11.13, 10.68, 10.73, 10.28, 9.83, 9.83, 9.39, 8.94, 9.39, 9.33, 9.76, 9.11, 7.31, 9.33, 9.2, 7.27, 8.18, 7.27, 7.59, 7.9, 7.9, 8.22, 11.09, 13.58, 16.59, 22.14, 20.89, 15.82, 14.11, 11.75, 11.16, 11.99, 13.23, 13.36, 13.67, 11.44, 11.44, 13.7, 13.28, 12.87, 13.59, 13.59, 13.67, 13.59, 13.28, 13.28, 12.66, 13.34, 10.72, 10.72, 10.72, 11.06, 11.39, 11.39, 12.07, 12.07, 12.07, 12.7, 12.7, 13.06, 13.41, 13.41, 13.41, 13.76, 13.98, 13.93, 14.24, 13.85, 13.74, 13.74, 13.6, 13.6, 13.84, 13.42, 13.42, 13.57, 13.57, 13.57, 13.78, 13.29, 13.72, 13.92, 13.92, 13.88, 13.62, 13.62, 13.59, 13.74, 13.29, 12.83, 12.83, 12.39, 12.39, 13.33, 11.49, 11.02, 10.58, 10.69, 10.68, 10.24, 10.24, 10.28, 9.83, 9.39, 9.39, 8.94, 8.94, 9.39, 9.32, 9.32, 10.41, 9.33, 8.8, 9.2, 8.18, 9.6, 8.55, 7.9, 8.22, 8.22, 11.6, 12.87, 12.73, 16.06, 25.49, 23.94, 16.18, 13.44, 14.75, 13.7, 14.61, 16.03, 15.99, 13.59, 11.52, 11.52, 12.65, 11.44, 11.44, 11.44, 10.82, 11.88, 11.99, 11.92, 11.92, 11.92, 10.72, 10.72, 11.06, 11.06, 11.39, 11.73, 12.07, 12.07, 12.42, 12.7, 13.06, 13.41, 13.41, 13.41, 13.76, 13.76, 13.76, 13.93, 13.93, 13.85, 13.45, 13.74, 13.33, 13.6, 13.6, 13.84, 13.33, 13.33, 13.57, 13.57, 13.57, 13.72, 13.72, 13.72, 13.49, 13.88, 13.88, 14.06, 14.06, 13.59, 13.59, 13.15, 12.83, 12.83, 12.85, 12.85, 12.04, 10.7, 10.25, 10.25, 10.25, 9.8, 9.8, 9.79, 9.39, 9.39, 8.94, 8.94, 8.94, 8.94, 9.39, 8.87, 8.41, 9.83, 9.83, 9.33, 9.2, 9.2, 7.27, 6.2, 8.22, 10.0, 12.58, 11.87, 13.7, 15.07, 20.25, 28.89, 24.52, 17.99, 16.25, 15.8, 17.28, 17.84, 17.28, 16.44, 11.52, 8.94, 9.22, 10.12, 10.12, 8.94, 8.66, 9.48, 9.96, 11.26, 11.26, 11.26, 10.42, 10.42, 11.06, 11.06, 11.39, 11.73, 12.07, 12.07, 12.42, 12.7, 13.06, 13.41, 13.41, 13.41, 13.76, 13.76, 13.39, 13.73, 13.73, 13.45, 13.45, 13.33, 13.19, 13.48, 13.48, 13.48, 13.33, 13.33, 13.33, 13.57, 13.57, 13.49, 13.72, 13.72, 13.29, 13.88, 13.88, 13.88, 13.88, 13.82, 13.59, 13.15, 13.15, 12.71, 12.71, 12.85, 12.39, 11.59, 10.7, 10.25, 9.81, 9.81, 9.36, 9.36, 9.39, 8.94, 8.94, 8.49, 8.49, 8.94, 8.94, 8.94, 8.87, 10.73, 9.83, 9.83, 9.2, 9.6, 5.7, 7.9, 10.0, 10.41, 10.79, 12.46, 13.01, 14.9, 17.19, 21.84, 27.08, 22.19, 18.76, 19.31, 20.33, 19.59, 18.08, 16.21, 15.65, 7.59, 4.52, 6.4, 7.13, 7.13, 7.69, 8.59, 9.17, 9.17, 9.17, 9.17, 10.75, 10.75, 10.75, 11.06, 11.73, 11.73, 11.73, 12.08, 12.42, 12.7, 13.05, 13.05, 13.41, 13.39, 13.39, 13.39, 13.39, 13.35, 13.35, 13.45, 13.05, 13.19, 13.19, 13.19, 13.48, 13.07, 13.07, 13.33, 13.33, 13.33, 13.49, 13.49, 13.49, 13.72, 13.65, 13.65, 13.65, 13.88, 13.88, 13.82, 13.39, 13.39, 12.96, 12.71, 12.68, 12.24, 12.39, 11.95, 11.51, 11.14, 10.25, 9.81, 9.81, 9.36, 9.36, 8.49, 8.49, 8.05, 8.05, 8.49, 8.49, 8.94, 8.94, 8.49, 10.73, 9.83, 9.33, 6.64, 7.27, 8.93, 11.03, 9.2, 8.94, 11.2, 11.99, 13.07, 15.12, 17.02, 20.15, 21.38, 21.88, 22.43, 21.7, 20.67, 17.99, 15.99, 15.83, 16.09, 4.81, 2.28, 5.31, 5.6, 7.19, 8.3, 8.3, 8.01, 8.01, 8.01, 10.75, 10.75, 10.75, 10.75, 11.73, 11.4, 11.73, 12.08, 12.08, 12.42, 13.05, 13.05, 13.05, 13.39, 13.39, 13.02, 13.35, 13.35, 12.97, 13.29, 13.29, 13.19, 13.19, 13.19, 13.07, 13.07, 13.07, 13.33, 13.33, 13.33, 13.49, 13.49, 13.49, 13.49, 13.65, 13.65, 13.65, 13.65, 13.88, 13.82, 13.39, 12.96, 12.96, 12.53, 12.68, 12.24, 11.8, 11.8, 11.51, 11.49, 11.05, 10.7, 10.25, 9.81, 9.81, 8.94, 8.94, 8.49, 8.05, 8.05, 8.49, 8.49, 8.94, 9.39, 8.94, 10.28, 9.33, 8.0, 8.18, 8.55, 9.2, 7.59, 9.3, 11.2, 12.33, 12.98, 14.56, 15.38, 15.74, 15.24, 19.18, 25.1, 25.16, 20.23, 18.63, 17.35, 17.3, 16.85, 11.06, 0.0, 6.0, 4.48, 5.6, 6.94, 7.82, 7.24, 7.24, 7.24, 10.75, 10.75, 10.75, 11.09, 11.4, 11.4, 11.73, 12.08, 12.08, 12.08, 12.68, 12.68, 12.68, 13.02, 13.02, 13.02, 13.35, 12.97, 12.97, 13.29, 13.29, 13.19, 12.79, 12.79, 13.07, 13.07, 13.07, 13.33, 13.33, 13.33, 13.49, 13.49, 13.49, 13.49, 13.65, 13.65, 13.65, 13.65, 13.65, 13.39, 13.39, 12.96, 12.96, 12.53, 12.46, 12.24, 11.8, 11.8, 11.36, 11.49, 11.05, 10.6, 10.6, 10.25, 9.81, 9.8, 8.91, 8.49, 8.05, 8.05, 8.05, 8.49, 8.49, 8.94, 8.94, 9.83, 8.91, 8.91, 8.8, 6.95, 7.27, 7.9, 9.3, 11.87, 12.46, 13.01, 13.57, 14.28, 13.58, 12.36, 13.84, 21.4, 24.82, 22.21, 20.08, 18.31, 17.13, 15.39, 14.75, -12.96, 0.0, 2.45, 3.82, 4.48, 3.82, 0.0, 0.0, 0.0, 10.75, 10.75, 10.75, 10.76, 11.4, 11.4, 11.73, 11.73, 11.73, 12.43, 12.43, 12.68, 13.02, 13.02, 13.02, 12.97, 12.97, 12.97, 12.97, 13.29, 12.9, 13.19, 12.79, 12.79, 13.07, 13.07, 13.07, 13.07, 13.33, 13.23, 13.23, 13.49, 13.49, 13.49, 13.39, 13.65, 13.65, 13.65, 13.15, 13.15, 12.96, 12.96, 12.53, 12.53, 12.53, 12.24, 11.8, 11.8, 11.36, 11.33, 10.89, 11.05, 10.6, 10.6, 10.25, 9.8, 9.36, 8.91, 8.46, 8.05, 7.6, 8.05, 8.49, 8.94, 8.94, 10.28, 9.97, 9.33, 8.8, 6.95, 8.55, 7.59, 10.79, 11.45, 12.04, 12.33, 12.03, 11.44, 11.03, 11.06, 12.29, 16.22, 20.7, 21.71, 22.59, 19.68, 16.43, 12.88, -12.04, -10.73, -12.14, -8.53, 0.0, -3.53, -10.0, -10.18, -10.18, -10.18, 10.43, 10.43, 10.76, 10.76, 11.06, 11.39, 11.39, 11.73, 12.07, 12.07, 12.07, 12.32, 12.65, 12.65, 12.65, 12.97, 12.97, 12.97, 12.97, 12.9, 12.9, 12.79, 12.79, 12.79, 13.07, 13.07, 13.07, 13.07, 13.33, 13.23, 13.23, 13.64, 13.91, 13.91, 13.39, 13.39, 13.65, 13.23, 13.15, 12.72, 12.72, 12.53, 12.53, 12.53, 12.09, 12.24, 11.8, 11.8, 11.36, 11.33, 10.89, 10.89, 11.05, 10.6, 10.16, 10.14, 9.8, 9.36, 8.46, 8.01, 8.05, 7.6, 8.05, 8.49, 8.49, 8.94, 9.64, 8.8, 9.33, 8.8, 9.54, 10.28, 10.38, 11.45, 11.2, 10.79, 10.3, 9.48, 9.42, 11.03, 12.22, 12.8, 14.22, 19.23, 24.18, 21.29, 13.36, 10.28, -10.4, -8.85, -10.8, -11.62, -10.41, -10.18, -9.97, -9.54, -9.54, -9.54, 10.76, 10.76, 10.76, 10.76, 11.06, 11.39, 11.39, 11.39, 11.72, 12.07, 12.07, 12.65, 12.65, 12.65, 12.65, 13.35, 12.97, 12.97, 12.9, 12.9, 12.5, 12.79, 12.79, 12.79, 12.79, 13.07, 13.07, 13.07, 13.33, 13.23, 13.64, 13.64, 13.91, 13.81, 13.39, 13.39, 13.65, 13.23, 13.15, 12.72, 12.72, 12.3, 12.53, 12.09, 12.04, 12.04, 11.8, 11.8, 11.36, 11.36, 11.33, 10.89, 11.05, 10.6, 10.6, 10.14, 9.7, 9.36, 8.9, 8.46, 8.01, 7.57, 7.6, 8.05, 8.05, 8.94, 9.39, 9.97, 9.55, 10.08, 9.97, 9.33, 9.83, 10.38, 10.35, 10.73, 8.1, 7.19, 8.05, 10.43, 11.03, 11.03, 11.63, 15.62, 25.76, 19.49, 15.16, 10.73, 10.73, -0.0, -0.0, -11.28, -11.18, -10.41, -10.08, -9.64, -9.64, -9.64, 10.76, 10.44, 10.44, 10.44, 11.04, 11.04, 11.04, 11.39, 11.72, 11.72, 11.72, 12.05, 12.65, 13.02, 13.02, 12.97, 12.97, 12.59, 12.9, 12.5, 12.5, 12.5, 12.79, 12.79, 12.79, 13.07, 13.07, 13.07, 13.75, 13.64, 13.64, 13.64, 13.91, 13.91, 13.39, 13.39, 13.65, 13.23, 13.15, 12.72, 12.72, 12.3, 12.3, 12.09, 12.04, 11.61, 11.61, 11.8, 11.36, 11.36, 11.33, 11.33, 11.05, 10.6, 10.6, 10.14, 9.7, 9.26, 8.91, 8.9, 8.46, 8.01, 7.57, 7.6, 7.6, 7.15, 9.39, 9.39, 9.64, 10.08, 9.96, 9.96, 10.28, 9.83, 10.84, 9.3, 6.44, 4.1, 6.0, 9.8, 10.77, 11.29, 11.29, 16.0, 27.11, 21.83, 17.3, 11.91, 11.18, 11.18, 10.84, -11.18, -11.62, -10.96, -10.52, -9.64, -9.64, -9.64, 10.44, 10.44, 10.44, 10.73, 11.04, 11.04, 11.04, 11.36, 11.36, 11.72, 12.07, 12.42, 13.02, 12.65, 12.97, 12.97, 12.59, 12.59, 12.5, 12.5, 12.5, 12.5, 12.79, 12.79, 12.79, 12.79, 13.07, 13.48, 13.48, 13.64, 13.64, 13.64, 13.91, 13.91, 13.39, 13.39, 12.98, 13.23, 12.8, 12.72, 12.3, 12.3, 11.87, 12.09, 12.04, 11.61, 11.61, 11.61, 11.8, 11.36, 11.36, 11.33, 11.49, 11.05, 10.6, 10.14, 9.7, 9.26, 8.82, 8.8, 8.46, 8.01, 8.01, 7.56, 7.56, 7.6, 9.39, 9.39, 9.83, 9.39, 9.64, 10.08, 10.52, 10.28, 10.28, 7.9, 4.48, 3.04, 6.67, 9.17, 9.48, 10.43, 12.27, 27.04, 27.57, 23.17, 17.97, 13.19, 0.0, 5.4, 8.22, 0.0, -11.4, -11.4, -10.52, -10.08, -10.08, -10.08, 10.11, 10.11, 10.11, 10.7, 11.04, 11.04, 11.04, 11.36, 11.72, 12.07, 12.07, 12.42, 12.42, 12.65, 12.65, 12.59, 12.59, 12.59, 12.5, 12.5, 12.5, 12.5, 12.79, 12.79, 12.79, 13.19, 13.48, 13.48, 13.35, 13.64, 13.64, 13.64, 13.64, 13.49, 13.39, 13.39, 12.98, 13.23, 12.8, 12.8, 12.3, 12.3, 12.09, 12.09, 12.09, 11.61, 11.61, 11.61, 11.8, 11.8, 11.8, 11.76, 11.49, 11.05, 10.6, 10.16, 9.7, 9.26, 8.82, 8.8, 8.36, 7.92, 7.48, 7.56, 7.56, 7.56, 7.55, 7.54, 10.28, 10.28, 10.28, 10.28, 10.28, 10.28, 9.97, 6.44, 2.28, 2.37, 5.6, 7.82, 8.3, 10.52, 16.85, 25.36, 26.18, 21.48, 14.95, -0.0, 0.0, 1.91, 0.0, -6.71, -8.94, -10.38, -10.52, -10.08, -10.08, -10.08, 10.11, 10.11, 10.11, 10.43, 10.7, 11.04, 11.04, 11.72, 11.72, 11.72, 11.72, 12.42, 12.05, 12.05, 12.27, 12.59, 12.59, 12.59, 12.59, 12.5, 12.9, 12.9, 12.9, 13.19, 13.19, 13.19, 13.59, 13.89, 13.35, 13.35, 13.64, 13.64, 13.23, 13.23, 13.39, 12.98, 12.98, 12.98, 12.56, 12.8, 12.37, 12.3, 11.87, 12.09, 12.09, 11.66, 11.61, 11.61, 11.8, 11.8, 11.8, 11.8, 11.33, 11.05, 10.6, 10.16, 9.72, 9.26, 8.82, 8.82, 8.36, 7.92, 7.48, 7.45, 7.89, 7.89, 7.89, 7.85, 10.08, 10.41, 10.41, 10.73, 10.73, 10.28, 9.54, 8.18, -0.0, -0.0, 4.65, 7.82, 7.82, 9.48, 15.84, 21.84, 26.22, 19.65, -5.23, -11.84, -8.93, -5.75, -7.9, -8.22, -8.22, -9.3, -10.6, -9.83, -9.83, -9.83, 10.11, 10.11, 10.43, 10.43, 11.04, 11.04, 11.04, 11.04, 11.72, 11.72, 11.72, 11.72, 12.05, 12.05, 12.27, 12.59, 12.59, 12.59, 12.59, 12.59, 12.9, 12.9, 12.9, 13.29, 13.59, 13.59, 13.43, 13.04, 13.35, 13.35, 13.35, 13.23, 13.23, 13.23, 13.11, 12.7, 12.98, 12.56, 12.56, 12.14, 12.04, 12.3, 11.87, 11.87, 12.09, 11.66, 11.66, 11.61, 11.61, 11.8, 11.8, 11.8, 11.33, 10.89, 10.45, 10.16, 9.72, 9.26, 9.26, 8.82, 8.36, 7.92, 7.92, 7.92, 7.89, 7.89, 8.33, 8.29, 8.24, 10.52, 10.41, 10.41, 10.73, 10.28, 10.28, 10.28, 7.27, -0.0, 3.68, 7.24, 7.51, 11.9, 16.34, 20.2, 28.05, 24.25, 15.99, -14.3, -11.18, -10.6, -10.4, -9.3, -8.22, 11.62, 11.18, 7.27, 7.27, 7.27, 10.11, 10.11, 10.43, 10.43, 10.43, 10.7, 10.7, 11.04, 11.36, 11.36, 11.36, 11.36, 12.05, 12.05, 12.05, 12.05, 12.59, 12.97, 12.97, 12.97, 13.29, 13.29, 13.29, 13.29, 13.59, 13.43, 13.43, 13.04, 13.35, 13.35, 12.94, 12.94, 13.23, 13.23, 12.7, 12.7, 12.7, 12.56, 12.56, 12.14, 12.04, 12.04, 11.87, 11.87, 11.87, 12.09, 11.66, 11.61, 11.61, 11.61, 11.8, 11.36, 10.93, 10.89, 10.45, 10.02, 9.58, 9.7, 9.26, 8.82, 8.82, 8.36, 7.92, 7.92, 7.89, 8.33, 8.33, 8.33, 8.06, 9.55, 10.08, 10.41, 10.28, 9.83, 9.83, 9.83, 9.83, -0.0, -0.0, 8.22, 11.6, 13.15, 15.53, 19.22, 25.93, 27.68, 19.22, 0.0, -12.79, -10.96, -11.4, -11.62, -12.07, 10.4, 8.94, 8.94, 8.94, 8.94, 10.11, 10.11, 10.11, 10.43, 10.43, 10.43, 10.43, 10.7, 11.01, 11.36, 11.36, 11.72, 12.05, 12.05, 12.42, 12.42, 12.76, 12.97, 12.97, 12.97, 12.97, 13.29, 13.29, 13.29, 12.72, 13.43, 13.04, 13.04, 12.64, 12.94, 12.94, 12.94, 12.94, 12.81, 12.7, 12.7, 12.29, 12.56, 12.56, 12.14, 12.14, 12.04, 11.87, 11.87, 11.87, 11.87, 11.66, 11.66, 11.61, 11.61, 11.61, 11.36, 10.93, 10.93, 10.45, 10.02, 9.58, 9.54, 9.11, 8.67, 8.67, 8.19, 7.76, 8.19, 8.19, 8.14, 8.56, 8.56, 8.56, 9.75, 9.55, 9.97, 9.54, 9.39, 9.39, 9.39, 8.4, -6.64, -10.28, 11.62, 12.52, 13.41, 14.75, 17.37, 23.66, 27.69, 21.01, 18.26, 13.39, 0.0, 12.96, -0.0, 11.6, 10.37, 8.85, 8.85, 8.85, 8.85, 9.78, 9.78, 9.78, 10.43, 10.43, 10.43, 10.43, 10.43, 10.7, 11.36, 11.36, 11.72, 12.05, 12.42, 12.42, 12.42, 12.76, 12.76, 12.97, 12.97, 12.97, 12.9, 13.29, 13.29, 12.72, 13.04, 13.04, 12.64, 12.64, 12.64, 12.94, 12.94, 12.94, 12.54, 12.7, 12.29, 12.29, 12.29, 12.14, 12.14, 12.14, 12.14, 12.3, 11.87, 11.87, 11.87, 11.45, 11.66, 11.66, 11.61, 11.18, 10.75, 10.93, 10.49, 10.49, 10.02, 10.02, 9.58, 9.11, 8.67, 8.24, 8.24, 8.19, 8.19, 8.19, 8.14, 8.56, 8.56, 8.56, 8.56, 8.91, 10.38, 9.97, 9.11, 9.39, 9.39, 9.39, -0.0, -10.28, 11.62, 12.52, 13.41, 14.66, 16.35, 22.64, 27.6, 22.33, 19.67, 17.88, 16.54, 16.09, 14.75, 13.15, 11.5, 10.12, 10.79, 10.79, 10.79, 9.78, 9.78, 10.09, 10.09, 10.09, 10.43, 10.43, 10.43, 11.01, 11.36, 11.36, 11.72, 12.05, 12.42, 12.42, 12.42, 12.76, 12.76, 12.76, 12.97, 12.59, 12.9, 13.29, 13.29, 12.72, 13.04, 12.64, 12.64, 12.64, 12.64, 12.94, 12.94, 12.54, 12.54, 12.39, 12.29, 12.29, 11.88, 11.88, 12.14, 12.14, 12.14, 12.14, 12.3, 11.87, 11.87, 11.45, 11.45, 11.45, 11.66, 11.18, 10.75, 10.75, 10.49, 10.05, 10.02, 10.02, 9.58, 9.11, 8.67, 8.67, 8.24, 8.19, 8.19, 8.19, 8.19, 8.56, 8.56, 8.56, 8.56, 8.99, 10.6, 9.2, 10.18, 9.11, 9.7, 9.83, -0.0, -7.27, 10.73, 10.8, 12.3, 13.96, 15.46, 20.87, 27.68, 21.9, 20.54, 18.68, 18.66, 17.85, 16.47, 14.31, 12.3, 11.6, 11.92, 11.92, 11.92, 9.78, 9.78, 10.09, 10.09, 10.09, 10.09, 10.09, 10.43, 11.01, 11.36, 11.36, 11.72, 12.05, 12.05, 12.05, 12.05, 12.05, 12.39, 12.39, 12.39, 12.39, 12.9, 12.9, 12.9, 12.72, 12.64, 12.64, 12.64, 12.64, 12.64, 12.64, 12.54, 12.54, 12.54, 11.99, 12.29, 12.29, 11.88, 11.88, 12.14, 12.14, 12.14, 12.14, 11.95, 11.95, 11.87, 11.45, 11.45, 11.45, 11.03, 11.23, 10.75, 10.75, 10.32, 10.32, 9.89, 10.02, 9.58, 9.15, 9.11, 8.67, 8.24, 8.24, 8.19, 8.19, 8.19, 8.63, 8.56, 8.56, 8.56, 8.99, 8.99, 8.79, 11.28, 9.21, 9.7, 9.83, 8.18, -0.0, -0.0, 11.62, 12.3, 13.53, 14.31, 18.73, 25.03, 24.04, 20.8, 20.34, 19.68, 18.71, 16.85, 15.38, 13.7, 12.3, 12.46, 12.46, 12.46, 9.78, 9.78, 10.09, 10.09, 10.09, 10.09, 10.09, 10.43, 11.01, 11.36, 11.36, 11.72, 12.05, 12.05, 12.05, 12.05, 12.05, 12.39, 12.39, 12.39, 12.39, 12.9, 12.9, 12.9, 12.72, 12.64, 12.64, 12.64, 12.64, 12.64, 12.64, 12.54, 12.54, 12.54, 11.99, 12.29, 12.29, 11.88, 11.88, 12.14, 12.14, 12.14, 12.14, 11.95, 11.95, 11.87, 11.45, 11.45, 11.45, 11.03, 11.23, 10.75, 10.75, 10.32, 10.32, 9.89, 10.02, 9.58, 9.15, 9.11, 8.67, 8.24, 8.24, 8.19, 8.19, 8.19, 8.63, 8.56, 8.56, 8.56, 8.99, 8.99, 8.79, 11.28, 9.21, 9.7, 9.83, 8.18, -0.0, -0.0, 11.62, 12.27, 13.01, 14.07, 16.05, 20.12, 23.59, 20.64, 20.44, 20.12, 19.27, 18.33, 16.32, 15.04, 12.51, 12.58, 12.58, 12.58]}, {"header": {"dx": 0.06612293990616946, "dy": 0.0552356325346848, "nx": 98, "ny": 59, "la1": 35.046912555036876, "la2": 31.78801023549047, "lo1": -121.43107172385933, "lo2": -114.95102361305473, "refTime": "2026041710", "parameterCategory": 1, "parameterNumber": 3}, "data": [-15.91, -15.61, -15.83, -15.09, -14.28, -13.55, -12.7, -13.02, -12.89, -13.56, -14.3, -11.16, -11.53, -10.37, -8.53, -7.26, -7.44, -6.2, -4.32, -2.06, -0.0, 2.54, 5.2, 5.75, 7.9, 8.22, 10.04, 8.85, 10.8, 12.07, 12.52, 11.6, 10.41, 9.3, 7.27, 4.4, 3.49, 1.84, 0.0, 3.25, 6.95, 7.9, 5.2, -3.96, -8.68, -10.65, -15.8, -20.03, -17.19, -13.32, -14.11, -14.75, -15.2, -15.65, -13.99, -11.06, 0.0, 0.0, -15.65, -15.65, -15.65, -15.65, 0.0, 0.0, 0.0, 0.0, 0.0, 0.0, 0.0, 0.0, 0.0, 0.0, 0.0, -2.21, -2.21, -1.94, -1.63, -1.3, -2.64, -2.89, -3.1, -3.25, -4.55, -4.93, -5.99, -5.77, -3.82, -2.19, 0.0, -2.42, -4.99, -8.41, -10.43, -10.75, -11.52, -12.5, -12.89, -12.96, -16.17, -15.91, -15.61, -14.88, -14.51, -14.33, -13.18, -12.82, -12.65, -12.81, -13.86, -10.43, -9.48, -10.41, -11.6, -8.53, -6.7, -6.21, -6.21, -4.58, -3.68, -0.0, -0.0, 5.8, 7.59, 8.94, 9.3, 8.53, 6.7, 5.6, 10.12, 13.86, 12.52, 9.83, 6.7, 6.32, 3.6, 4.0, 2.28, 2.49, 0.0, 0.0, -7.19, -11.87, -15.38, -18.35, -21.2, -17.58, -12.74, -14.47, -14.75, -14.42, -12.65, -8.43, -4.81, 0.0, 4.95, 6.8, 4.95, -15.65, -14.84, -13.59, -10.75, 0.0, 0.0, 0.0, 0.0, 0.0, 0.0, 0.0, 0.0, 0.0, 0.0, -1.68, -3.69, -3.58, -3.2, -1.3, -2.64, -2.89, -3.1, -3.25, -4.55, -4.93, -5.99, -5.77, -3.82, -2.19, 0.0, -2.42, -4.99, -8.41, -10.43, -10.75, -11.52, -12.5, -12.89, -12.96, -16.39, -16.17, -15.91, -15.23, -15.23, -14.51, -13.38, -13.58, -13.03, -13.48, -14.11, -12.58, -11.53, -12.3, -11.62, -11.62, -9.67, -6.45, -5.99, -5.8, -4.58, -3.44, -3.44, -0.0, 2.72, 7.59, 8.58, 8.58, 6.2, -0.0, -0.0, -0.0, -0.0, 7.9, 8.49, 6.32, 4.71, 2.17, 0.0, 0.0, -4.48, -10.43, -15.16, -18.05, -19.99, -19.53, -16.32, -13.15, -14.75, -13.59, -6.8, -4.81, -3.69, -3.69, 0.0, 4.81, 8.43, 7.0, 5.81, 0.0, -15.65, -13.59, -0.0, 0.0, 10.75, 7.0, 3.79, 0.0, 0.0, 0.0, 2.0, 1.6, 0.0, -1.38, -4.66, -5.99, -7.38, -3.69, -3.93, -5.04, -5.31, -4.98, -5.8, -5.86, -6.16, -5.2, -2.71, -1.84, -1.39, -4.81, -7.76, -10.08, -11.38, -11.25, -11.03, -11.53, -12.04, -12.52, -15.97, -15.97, -15.72, -15.04, -15.04, -14.33, -14.13, -13.38, -12.82, -13.19, -13.75, -13.86, -13.88, -12.14, -12.07, -11.62, -11.62, -7.24, -5.77, -2.62, -1.58, -2.19, -3.07, -2.42, -0.0, 2.54, 6.17, 7.87, 8.18, -0.0, -5.4, -8.31, -5.81, -0.0, -0.0, 0.0, 0.0, 0.0, -4.65, -7.13, -10.76, -15.75, -17.27, -15.59, -13.2, -11.88, -9.8, 0.0, 0.0, 0.0, 0.0, 0.0, 0.0, 0.0, 3.58, 6.6, 6.8, 5.81, 5.81, 3.07, 0.0, -6.8, 0.0, 13.19, 12.27, 10.75, 7.0, 5.81, 5.51, 4.91, 4.12, 3.07, 1.3, 0.0, -2.18, -5.63, -9.06, -8.16, -6.37, -6.98, -7.89, -7.69, -6.96, -6.45, -6.2, -6.97, -4.48, -2.82, -4.3, -8.05, -10.13, -10.36, -10.52, -10.43, -9.48, -8.05, -5.8, -8.85, -16.2, -15.97, -15.97, -15.33, -15.04, -15.04, -14.33, -14.13, -13.2, -13.84, -13.99, -13.86, -13.88, -12.71, -11.91, -12.07, -11.4, -11.71, -5.2, -3.47, -1.83, -0.0, -0.0, -0.0, -0.0, -0.0, -0.0, 3.82, 7.9, 0.0, -9.6, -7.9, -6.97, -6.44, -12.79, -14.3, -14.42, -9.8, -11.38, -13.76, -13.92, -12.16, -9.48, -2.72, 0.0, 2.28, 2.81, 2.81, 0.0, 0.0, 0.0, 0.0, 0.0, 0.0, 3.58, 5.48, 2.98, 3.07, 5.81, 2.5, 0.0, 0.0, 10.12, 13.19, 11.8, 9.92, 6.31, 6.14, 3.59, 3.31, 2.44, 0.0, 0.0, 0.0, 0.0, -1.97, -6.73, -8.78, -6.98, -6.65, -7.78, -8.1, -8.07, -7.42, -8.73, -9.97, -8.53, -6.84, -9.25, -11.28, -10.31, -9.39, -9.34, -9.48, -7.78, -3.25, -4.1, -5.6, -16.2, -16.2, -15.97, -15.16, -14.88, -15.33, -14.67, -14.47, -13.9, -14.24, -14.56, -14.16, -14.3, -12.96, -12.52, -12.07, -12.07, -12.07, -7.54, -4.48, -4.32, -3.82, -2.2, -0.0, -0.0, -0.0, -2.93, -3.82, -11.6, -12.07, -4.4, -7.27, 0.0, -9.6, -11.91, -13.86, -13.41, -13.15, -12.16, -12.5, -11.72, -13.88, -7.69, 0.0, 1.77, 1.83, 0.0, 0.0, 0.0, 0.0, 0.0, 0.0, 0.0, 0.0, 2.89, 2.89, 2.89, 3.58, 2.98, 2.09, 0.0, 3.25, 12.27, 13.59, 9.66, 8.74, 6.47, 3.24, 0.0, 0.0, -5.31, -7.06, -5.8, -4.94, -4.12, -3.47, -4.24, -6.87, -7.78, -6.15, -7.1, -7.78, -8.6, -9.0, -9.81, -10.55, -12.23, -13.88, -13.7, -13.07, -11.38, -10.02, -10.52, -10.12, -9.17, -4.98, -5.8, -7.51, -16.39, -16.2, -15.8, -15.41, -15.16, -14.88, -14.95, -15.14, -14.56, -13.99, -14.66, -13.75, -14.3, -12.3, -13.41, -11.62, -12.07, -12.52, -10.73, -5.99, -5.86, -7.11, -5.46, -4.1, -4.65, -5.2, -8.22, -10.8, -12.14, -10.41, -11.18, 0.0, 6.95, 0.0, -11.18, -12.96, -12.52, -13.15, -9.3, -8.82, -12.52, -12.96, -14.3, -13.59, -9.39, -6.8, -2.65, 0.0, 0.0, 0.0, 0.0, 0.0, 0.0, 2.89, 2.81, 2.72, 2.81, 3.47, 0.0, 0.0, 0.0, 4.24, 10.75, 13.39, 9.17, 7.4, 3.33, 0.0, -2.57, -7.04, -9.2, -10.42, -10.43, -10.99, -10.76, -9.42, -6.8, -4.71, -6.65, -7.2, -6.87, -8.76, -10.9, -11.9, -13.43, -15.46, -17.79, -18.31, -16.48, -14.73, -13.63, -13.85, -11.63, -13.01, -13.41, -8.1, -7.82, -8.1, -15.99, -15.63, -15.63, -15.41, -15.41, -15.16, -14.95, -14.75, -14.56, -14.21, -14.75, -13.77, -14.3, -13.01, -9.8, -10.35, -12.39, -13.28, -12.96, -8.85, -0.0, -4.65, -6.67, -8.31, -11.09, -10.8, -11.21, -12.04, -9.97, -7.9, -9.3, -11.62, -7.9, -3.39, -8.94, -11.18, -11.06, -11.18, -10.41, -9.3, -10.96, -12.07, -12.96, -13.72, -14.47, -14.39, -11.06, -3.16, -2.43, -2.81, -3.04, 0.0, 2.72, 5.15, 5.15, 5.15, 5.15, 2.72, 0.0, 0.0, 0.0, 4.24, 10.75, 11.06, 7.2, 4.12, 0.0, -2.21, -4.66, -6.16, -8.0, -8.9, -9.88, -10.47, -10.75, -10.43, -7.93, -5.45, -4.81, -6.78, -7.32, -9.3, -10.78, -12.08, -14.62, -17.59, -18.94, -18.32, -17.22, -14.95, -14.24, -14.17, -13.01, -6.2, -13.41, -9.42, -7.64, -8.67, -15.63, -15.63, -15.63, -15.63, -15.41, -15.16, -15.2, -14.57, -14.79, -14.61, -14.53, -13.67, -15.65, -13.41, -12.72, -9.17, -11.5, -11.99, -12.04, 0.0, 11.2, 12.52, -0.0, -9.8, -12.45, -11.62, -9.13, -8.38, -8.53, -8.58, -11.4, -12.07, -12.52, -10.8, -9.58, -9.75, -10.73, -9.6, -11.62, -9.3, -12.27, -12.52, -12.14, -11.16, -11.9, -12.39, -16.09, -15.19, -8.28, -5.64, 0.0, 0.0, 2.63, 5.15, 5.15, 5.15, 5.15, 2.13, 0.0, 0.0, 0.0, 4.81, 10.75, 11.06, 0.0, 0.0, 0.0, -2.0, -4.66, -8.18, -6.34, -6.14, -6.84, -7.0, -7.59, -8.31, -8.87, -7.78, -6.98, -7.15, -6.99, -7.48, -8.94, -10.07, -11.74, -13.33, -14.82, -14.79, -14.88, -14.31, -12.46, -0.0, -0.0, -9.48, -12.89, -9.3, -8.53, -8.53, -15.43, -15.82, -15.82, -15.63, -15.63, -15.41, -14.78, -14.81, -14.2, -14.79, -14.73, -14.53, -13.55, -12.96, -14.3, -13.01, -12.74, -13.32, -13.59, -11.6, 0.0, 12.52, 0.0, 0.0, -10.73, -9.66, -7.87, -5.98, -8.38, -10.8, -12.52, -14.3, -13.86, -11.71, -11.28, -10.79, -9.96, -8.94, 0.0, -12.52, -11.21, -8.85, -0.0, -0.0, -0.0, -9.17, -13.41, -14.03, -13.99, -4.95, 0.0, 3.58, 5.31, 5.15, 5.15, 4.52, 4.38, 1.83, 0.0, 0.0, 0.0, 9.17, 12.33, 11.38, 7.2, 0.0, 0.0, 0.0, -5.15, -11.44, -9.22, -7.0, -6.19, -5.09, -5.35, -6.2, -7.44, -7.18, -7.78, -8.99, -8.74, -7.4, -7.4, -8.68, -8.2, -7.93, -8.56, -8.14, -7.36, -4.1, 3.14, 7.51, 0.0, -12.96, -12.75, -10.66, -9.9, -9.69, -15.43, -15.43, -15.82, -15.82, -15.26, -15.41, -15.03, -14.42, -14.79, -14.58, -14.53, -13.97, -13.97, -14.03, -15.65, -14.3, -14.68, -14.18, -14.75, -14.75, -0.0, -0.0, -0.0, -0.0, -4.1, -6.44, -6.17, -5.9, -7.27, -12.27, -12.07, -9.83, -9.83, -8.8, -8.8, -10.4, -10.4, -11.62, -0.0, -0.0, -2.54, -0.0, -0.0, -0.0, -0.0, -0.0, -10.8, -11.2, -9.17, -0.0, 0.0, 0.0, 3.9, 5.98, 5.98, 5.23, 4.54, 1.96, 0.0, -2.2, 0.0, 12.64, 11.7, 11.38, 11.38, 10.73, 7.14, 5.65, 0.0, -11.6, -11.53, -8.18, -7.71, -6.19, -5.46, -5.62, -6.45, -7.1, -9.06, -9.73, -9.81, -9.92, -7.57, -6.47, -7.57, -6.99, -7.21, -5.46, -3.0, 0.0, 1.04, 0.0, -1.77, -7.51, -10.55, -11.04, -10.79, -11.12, -15.43, -15.43, -15.82, -15.47, -15.26, -15.63, -15.03, -14.62, -14.79, -14.99, -14.94, -14.18, -13.58, -13.78, -14.42, -14.75, -12.96, -12.52, -13.34, -11.53, -0.0, -0.0, -0.0, -0.0, -0.0, -0.0, -0.0, -0.0, -4.8, -8.93, -10.0, -8.93, -0.0, -0.0, -10.28, -10.73, -10.18, -3.68, -2.28, -0.0, 2.06, 2.93, 10.4, 11.62, 9.6, 4.6, -0.0, -5.6, -0.0, -13.86, -14.3, -14.79, -8.4, 0.0, 0.0, 0.0, 0.0, 0.0, -1.71, -2.72, 9.92, 16.39, 13.95, 14.94, 15.78, 15.38, 13.41, 10.2, 3.31, -3.33, -9.22, -7.34, -7.59, -6.8, -5.8, -5.2, -5.86, -8.18, -10.11, -10.11, -10.19, -10.05, -10.76, -7.56, -6.97, -7.14, -8.27, -7.66, -5.67, -3.81, -3.23, -2.99, -3.68, -4.72, -7.51, -9.17, -10.37, 0.0, -15.09, -15.09, -15.09, -15.47, -15.47, -15.26, -15.24, -14.64, -14.62, -14.39, -14.74, -14.18, -13.81, -13.23, -13.38, -15.36, -15.65, -14.75, -13.77, -9.8, -0.0, -0.0, -0.0, 2.09, 2.02, 4.38, 6.0, 7.19, 3.82, -1.22, -4.15, -0.0, 2.1, 2.49, -0.0, -0.0, -2.02, -0.0, -0.0, 1.58, 1.91, 2.28, 9.3, 9.83, 9.75, 9.6, -0.0, -8.53, -12.58, -13.41, -12.52, -13.41, -14.3, -15.2, -16.99, -17.78, -16.74, -10.2, -7.2, -3.82, 16.09, 16.05, 17.1, 16.09, 18.33, 17.99, 7.07, 4.91, 0.0, -3.54, -6.14, -8.28, -5.02, -4.72, -5.06, -5.86, -7.73, -9.16, -9.94, -10.68, -10.3, -11.06, -10.87, -11.18, -8.9, -7.94, -9.26, -9.92, -9.23, -6.85, -6.2, -4.32, -3.76, -4.47, -5.6, -6.51, -5.8, 6.0, -15.28, -15.28, -15.47, -15.47, -15.47, -15.47, -15.24, -14.64, -15.01, -14.79, -14.39, -13.81, -13.81, -13.54, -13.23, -14.28, -16.54, -16.99, -15.97, -13.02, -3.69, -0.0, -0.0, -0.0, -0.0, 1.51, 2.98, 3.88, 2.48, -0.0, -1.18, -0.0, -0.0, -0.0, -0.0, -0.0, -2.39, -0.0, 2.02, 3.39, 1.76, 2.02, 4.8, 9.2, 9.83, 10.28, 0.0, -11.18, -11.28, -12.52, -12.52, -12.07, -12.07, -12.07, -12.52, -12.52, -15.65, -18.85, -17.17, 0.0, 9.8, 15.65, 16.54, 16.99, 16.54, 0.0, -12.33, -10.41, -12.87, -11.73, -7.49, -6.14, -7.44, -5.29, -6.2, -8.4, -9.41, -10.63, -10.87, -11.43, -12.01, -11.13, -10.11, -9.39, -10.61, -10.22, -10.57, -10.17, -11.48, -9.92, -7.21, -5.3, -4.92, -5.6, -5.67, -5.55, -4.81, -2.54, -15.28, -15.28, -15.67, -15.67, -15.47, -15.86, -15.26, -15.24, -14.64, -14.62, -14.03, -13.64, -13.8, -13.8, -13.46, -13.95, -14.95, -15.93, -17.3, -16.99, -13.76, -7.2, -2.21, -0.0, -0.0, -0.0, 1.38, 1.34, 1.3, 1.38, -0.0, -0.0, -0.0, -0.0, -0.0, -0.0, -0.0, -0.0, 3.53, 3.11, 3.82, 3.39, -0.0, -0.0, 6.95, 6.95, 6.95, 7.27, 0.0, -10.6, -11.62, -11.18, -10.73, -9.39, 0.0, -7.59, -11.62, -13.67, -17.97, 0.0, 9.17, 9.17, 13.86, 0.0, -0.0, -15.2, -15.69, -16.12, -15.27, -14.22, -4.99, -6.79, -10.58, -7.93, -9.06, -12.19, -12.33, -12.03, -10.61, -11.19, -11.48, -11.19, -8.4, -7.03, -6.43, -10.75, -9.82, -10.05, -9.88, -8.77, -8.25, -6.76, -6.09, -5.89, -5.28, -5.8, -5.8, -5.8, -14.95, -14.95, -15.67, -15.67, -15.67, -15.86, -15.47, -15.63, -14.64, -14.26, -14.03, -14.03, -14.03, -14.03, -14.13, -13.82, -14.51, -14.28, -15.63, -16.32, -17.43, -15.19, -8.51, -3.9, -0.0, -0.0, -0.0, -0.0, -0.0, -0.0, -0.0, -0.0, -0.0, -0.0, -0.0, 4.0, 7.27, 5.7, 4.8, 3.82, 3.49, 2.97, -0.0, 4.4, 4.4, 8.4, 8.8, 9.2, 7.27, -0.0, 0.0, -11.62, 0.0, 10.73, 9.39, 9.83, 0.0, -10.4, 0.0, 0.0, 0.0, 0.0, 0.0, 0.0, 0.0, -12.96, -12.96, -15.2, -7.2, 0.0, -11.9, -11.53, -12.69, -13.8, -11.6, -13.7, -14.59, -14.42, -11.0, -8.2, -4.45, -3.59, -4.67, -5.48, -4.64, -4.3, -8.38, -7.78, -7.54, -7.34, -8.05, -7.62, -7.62, -6.0, -5.8, -5.72, -6.44, -6.44, -14.95, -14.95, -15.33, -15.67, -15.67, -15.86, -15.86, -15.26, -15.03, -14.64, -13.65, -13.65, -14.03, -14.03, -14.13, -14.13, -14.29, -14.51, -14.71, -14.51, -15.59, -16.82, -15.77, -8.51, -4.42, -2.0, -0.0, -0.0, -0.0, -0.0, -0.0, -0.0, -0.0, -0.0, 2.83, 6.64, 5.06, 4.8, 4.6, 3.11, -0.0, -0.0, 4.6, 6.32, 6.95, 8.8, 9.2, 7.27, 7.27, 10.28, 10.28, 10.73, 0.0, 0.0, 0.0, 0.0, 0.0, 7.59, 8.53, 9.17, 0.0, 0.0, 0.0, 10.73, 10.73, 0.0, 0.0, -10.4, -11.53, -17.43, -18.23, -14.41, -14.3, -18.24, -17.64, -13.28, -17.19, -19.67, -13.91, 0.0, 0.0, 0.0, -4.12, -5.64, -5.92, -4.81, -4.9, -5.8, -6.51, -7.44, -7.92, -8.73, -8.85, -7.78, -7.25, -6.53, -7.36, -7.36, -14.95, -14.95, -15.33, -15.33, -15.67, -15.86, -15.86, -15.26, -14.88, -14.26, -14.03, -13.65, -14.03, -14.03, -14.13, -13.46, -14.19, -13.82, -14.13, -13.55, -13.23, -14.4, -15.9, -15.78, -13.39, -8.93, -7.4, -2.28, -0.0, -0.0, -0.0, 2.15, 2.35, 2.28, 6.44, 7.27, 5.06, 2.49, 2.39, -0.0, -0.0, -0.0, -0.0, 7.27, 7.27, 7.27, 10.73, 10.28, 10.28, 10.28, 10.28, 10.28, 0.0, 7.27, 0.0, 0.0, 0.0, 4.8, 5.0, 7.9, 0.0, 0.0, 0.0, 10.73, 10.73, 9.83, 9.39, 0.0, -12.07, -15.53, -17.99, -16.37, -17.19, -21.46, 4.23, 10.19, -0.0, -18.78, -19.29, -15.02, -12.33, -10.39, -9.2, -8.18, -7.51, -7.93, -8.21, -5.8, -7.89, -8.58, -7.93, -8.1, -8.82, -8.93, -8.72, -8.3, -8.01, -8.01, -14.62, -14.62, -14.95, -14.95, -15.12, -15.12, -15.86, -15.12, -15.26, -14.64, -13.89, -13.63, -13.63, -14.0, -13.76, -15.38, -13.46, -13.46, -12.87, -12.03, -10.99, -12.33, -13.23, -16.48, -15.65, -16.09, -12.96, -13.59, -4.95, -2.28, -0.0, 2.81, 3.25, 5.4, 6.71, 7.59, 5.7, 2.95, -0.0, -0.0, -0.0, -0.0, -0.0, -0.0, 8.22, 10.73, 10.73, 10.28, 10.28, 10.28, 10.28, 10.28, 10.28, 7.27, 9.2, 4.6, 4.6, 5.0, 5.4, 0.0, 0.0, 0.0, 0.0, 9.83, 9.83, 9.39, 9.39, 0.0, -4.8, -7.36, -5.65, -2.0, 0.0, 5.33, 3.59, 0.0, -15.27, -16.54, -16.99, -16.91, -13.97, -13.71, -12.57, -11.73, -10.81, -9.85, -9.02, -8.72, -8.29, -8.59, -8.78, -8.05, -8.53, -9.0, -10.25, -10.12, -9.8, -9.8, -14.62, -14.62, -14.62, -14.95, -15.12, -15.12, -15.12, -15.12, -14.88, -14.24, -14.0, -13.63, -13.63, -13.7, -13.7, -13.01, -13.01, -12.73, -14.4, -12.71, -12.33, -11.43, -13.26, -14.95, -15.78, -15.34, -14.47, -13.41, -12.39, -7.19, -0.0, -0.0, 3.82, 3.82, 6.45, 6.44, 5.52, 3.98, 2.6, -0.0, -0.0, -0.0, 5.0, 7.9, 7.9, 11.62, 10.28, 10.28, 10.28, 9.83, 9.83, 10.28, 10.73, 11.18, 8.8, 6.95, 6.2, 5.95, 3.39, 0.0, -5.0, 0.0, 0.0, 10.73, 10.28, 10.28, 10.28, 6.2, 1.98, 3.25, 4.01, 4.77, 4.73, 2.62, -2.45, -8.13, -12.22, -14.39, -16.22, -16.37, -14.3, -14.11, -13.15, -11.28, -10.52, -6.9, -3.25, 0.0, -7.43, -7.28, -8.73, -8.97, -8.72, -10.48, -11.21, -11.3, -10.96, -10.96, -14.62, -14.62, -14.62, -14.39, -14.39, -14.74, -15.12, -15.12, -14.88, -14.61, -13.59, -13.23, -13.23, -13.26, -13.59, -13.26, -13.01, -12.73, -12.13, -14.85, -13.95, -12.02, -12.87, -13.58, -14.94, -15.78, -14.64, -13.86, -12.71, -10.04, -5.2, -0.0, -0.0, 5.2, 8.22, 6.2, 6.2, 5.95, 3.39, 5.0, 7.9, 7.9, 11.18, 12.07, 11.62, 0.0, 9.83, 0.0, 0.0, 10.28, 9.83, 10.28, 10.73, 11.18, 9.6, 8.55, 7.9, 8.94, 3.68, 0.0, -11.18, 0.0, 10.73, 11.18, 10.28, 10.73, 10.18, 8.53, 8.1, 8.05, 8.68, 9.61, 8.16, 0.0, -5.55, -10.13, -15.04, -15.09, -15.54, -14.61, -14.65, -13.64, -12.45, -9.48, 12.39, 13.01, 13.01, 9.48, 0.0, -1.98, -6.63, -9.02, -9.62, -10.09, -11.75, -11.8, -11.64, -11.64, -14.24, -14.62, -14.62, -14.39, -14.39, -14.39, -14.39, -15.12, -14.5, -14.13, -13.49, -12.84, -12.84, -12.84, -12.84, -12.84, -13.26, -12.22, -12.65, -13.01, -12.76, -11.76, -11.93, -12.82, -13.8, -14.79, -15.47, -15.2, -13.86, -12.96, -12.07, -11.62, 0.0, 0.0, 11.62, 10.0, 10.4, 10.4, 11.18, 11.18, 11.18, 11.18, 11.18, 12.07, 11.18, 10.73, 10.73, 0.0, 0.0, 10.28, 10.28, 10.73, 10.73, 11.18, 10.73, 10.6, 10.4, 11.62, 9.67, 0.0, -10.28, 10.73, 11.18, 11.18, 11.18, 11.18, 11.03, 10.8, 12.3, 14.47, 15.49, 17.06, 12.72, 2.67, -8.6, -11.04, -14.85, -16.1, -15.09, -13.8, -13.99, -15.11, -15.78, 0.0, 10.12, 0.0, 0.0, -2.81, -6.6, -3.82, -6.33, -9.06, -8.78, -6.4, -11.9, -10.12, -11.33, -11.33, -14.24, -14.24, -14.24, -14.04, -14.04, -14.39, -14.13, -14.13, -14.13, -14.13, -13.11, -12.45, -12.45, -12.09, -12.42, -12.42, -12.84, -12.12, -12.12, -12.01, -11.7, -11.38, -11.52, -11.17, -11.64, -11.88, -13.39, -12.87, -12.65, -10.12, -6.0, -5.8, 0.0, 0.0, 8.22, 8.22, 10.4, 10.4, 10.4, 10.4, 8.22, 8.22, 8.22, 8.22, 9.67, 10.6, 10.73, 0.0, 0.0, 0.0, 10.28, 10.73, 10.73, 11.18, 10.73, 10.73, 11.18, 12.79, 12.58, 6.64, 0.0, 10.28, 11.62, 11.62, 11.18, 11.18, 11.28, 10.84, 11.62, 12.35, 13.44, 15.99, 0.0, 0.0, -7.63, -9.33, -12.21, -13.92, -14.75, -13.55, -11.09, -13.42, -15.18, -15.65, -14.47, -12.87, -11.88, -10.86, -10.75, -9.82, -8.01, -8.83, -3.47, 10.12, -10.12, -10.12, -10.12, -10.12, -14.24, -14.24, -14.24, -14.24, -14.04, -13.76, -13.76, -14.13, -14.13, -13.85, -13.11, -12.45, -12.07, -11.7, -12.42, -11.59, -12.01, -11.7, -11.7, -11.56, -10.49, -10.08, -9.91, -10.1, -10.12, -10.43, -9.89, -10.02, -7.0, -5.64, -2.81, -2.72, 0.0, 0.0, 0.0, 2.71, 2.71, 5.0, 5.2, 5.2, 6.45, 6.45, 6.45, 6.45, 8.22, 9.3, 8.85, 0.0, 0.0, 0.0, 8.22, 7.9, 7.59, 10.73, 10.28, 10.28, 10.28, 12.07, 12.96, 8.22, 4.0, 9.39, 11.18, 11.62, 11.18, 12.07, 11.71, 11.87, 11.18, 11.18, 10.0, -10.58, -5.08, 0.0, 9.17, 0.0, -13.01, -11.92, -12.9, -12.82, -10.94, -11.64, -13.19, -13.96, -14.68, -14.51, -13.99, -12.99, -11.87, -9.66, -8.66, 0.0, 9.8, 6.2, -4.52, -10.12, -10.82, -10.82, -13.92, -13.92, -13.92, -13.68, -13.68, -13.68, -13.39, -13.76, -13.46, -13.46, -13.11, -12.07, -12.07, -11.7, -11.7, -11.59, -11.29, -10.83, -10.83, -10.33, -10.61, -10.49, -9.41, -8.93, -8.72, -9.06, -8.18, -7.82, -6.8, -5.18, -4.05, -2.02, 0.0, 0.0, 0.0, 0.0, 1.84, 2.19, 2.19, 2.28, 2.28, 5.2, 5.0, 5.0, 5.0, 4.8, 2.82, 2.1, 2.39, 2.39, 5.95, 8.85, 7.59, 7.59, 10.28, 10.28, 10.28, 9.83, 11.62, 11.2, 5.0, 5.21, 8.8, 10.73, 11.62, 12.07, 11.71, 11.84, 11.84, 8.22, -3.25, -7.0, 0.0, 5.11, 9.22, 8.24, 6.42, 0.0, -11.17, -11.72, -11.69, -11.21, -10.85, -12.45, -14.64, -14.68, -14.23, -13.56, -15.2, 13.99, 16.99, 13.19, 0.0, 0.0, -3.25, -7.13, -8.31, -8.31, -13.55, -13.55, -13.32, -13.68, -13.68, -13.68, -13.05, -12.74, -13.07, -13.07, -12.39, -12.39, -12.07, -11.31, -11.31, -10.89, -10.89, -10.43, -9.92, -9.92, -9.62, -10.05, -9.42, -8.21, -7.42, -6.8, -7.06, -5.92, -5.31, -4.11, -3.1, -1.53, 0.0, 0.0, 0.0, 0.0, 0.0, 1.58, 1.84, 1.84, 1.84, 1.91, 4.15, 4.15, 3.98, 3.98, 1.91, 1.69, 1.62, 1.93, 4.15, 5.0, 5.6, 8.53, 7.9, 9.6, 10.28, 9.83, 10.28, 11.62, 8.53, 6.7, 5.63, 8.18, 11.18, 12.07, 12.14, 12.27, 10.37, 5.6, 0.0, 0.0, 0.0, 4.73, 10.38, 12.81, 10.56, 5.05, -5.11, -10.62, -11.99, -11.66, -11.68, -11.75, -14.11, -15.43, -14.99, -14.75, 12.27, 10.75, -16.99, 0.0, -5.64, -5.81, -5.15, -2.81, -3.36, -3.36, -13.32, -13.32, -13.32, -13.68, -13.68, -13.41, -13.05, -13.05, -12.37, -12.01, -12.01, -12.01, -11.7, -11.31, -10.94, -10.51, -10.89, -10.43, -9.54, -9.54, -8.99, -8.77, -8.11, -7.78, -6.81, -6.16, -5.99, -5.3, -4.52, -3.36, -2.4, -2.2, -1.08, -1.17, 0.0, 0.0, 0.0, 0.0, 0.0, 0.0, 1.39, 1.44, 1.44, 1.52, 2.82, 1.58, 1.58, 1.45, 1.39, 1.62, 1.76, 4.15, 3.82, 4.6, 5.0, 7.59, 7.59, 10.28, 6.64, 10.28, 8.53, 6.71, 5.0, 4.8, 8.85, 10.4, 11.45, 10.79, 5.8, 2.54, 0.0, 0.0, 0.0, 1.41, 7.22, 11.53, 8.18, 4.51, 0.0, -9.33, -10.92, -11.26, -11.76, -10.37, -12.39, -13.99, -15.65, -0.0, 6.8, -0.0, -15.2, -14.79, -10.46, -9.92, -6.8, -3.47, -3.47, -3.47, -13.32, -13.32, -13.32, -13.68, -13.05, -13.05, -13.05, -13.05, -12.37, -12.01, -11.64, -11.24, -11.24, -11.24, -10.8, -10.51, -10.05, -10.05, -9.54, -9.54, -8.99, -8.39, -8.11, -7.2, -6.45, -5.49, -5.64, -4.53, -3.8, -2.81, -2.9, -1.96, -2.04, -1.08, -1.04, 0.0, 0.0, 0.0, 0.0, 0.0, 0.0, 1.16, 1.23, 1.14, 2.13, 1.18, 1.14, 1.28, 1.22, 1.45, 1.84, 1.76, 3.98, 3.82, 4.8, 3.68, 5.0, 0.0, 7.27, 10.28, 7.9, 3.53, 2.71, 2.37, 5.2, 10.41, 7.44, 0.0, 0.0, 0.0, 0.0, 0.0, -1.48, -2.72, -1.38, -1.51, -3.13, -1.37, 0.0, -8.23, -11.09, -10.75, -11.37, -9.77, -10.01, -12.39, -14.75, -15.18, -11.06, -0.0, -10.43, -15.65, -9.92, -7.6, -9.17, -7.0, -6.8, -6.8, -12.98, -12.98, -12.98, -12.71, -13.05, -13.05, -13.05, -12.74, -12.37, -12.37, -11.64, -11.24, -10.87, -10.43, -10.8, -10.05, -10.05, -9.54, -9.54, -8.99, -8.99, -8.16, -7.53, -6.85, -5.96, -5.21, -4.29, -4.53, -3.58, -2.89, -2.81, -1.83, -1.96, -2.04, -0.99, 0.0, 0.0, 0.0, 0.0, 0.0, 0.0, 0.0, 1.11, 0.0, 2.37, 2.02, 0.93, 0.0, 0.0, 0.0, 0.0, 1.76, 1.69, 2.02, 2.1, 2.1, 0.0, 0.0, 0.0, 0.0, 0.0, 0.0, 0.0, 0.0, 5.4, 9.17, 7.13, 0.0, -10.4, -8.22, -2.72, 0.0, -1.53, -5.45, -8.41, -10.65, -12.73, -9.2, -4.55, -3.33, -12.27, -9.89, -11.33, -10.04, -9.69, -9.48, -11.5, -14.47, -15.2, -10.75, -0.0, 0.0, 0.0, 0.0, 0.0, 0.0, 0.0, 0.0, -12.98, -12.98, -12.71, -12.71, -13.05, -13.05, -12.37, -12.37, -12.37, -12.37, -11.64, -10.87, -10.87, -10.43, -9.95, -9.68, -9.17, -9.17, -8.62, -8.39, -7.82, -7.53, -6.35, -5.67, -5.96, -5.06, -4.29, -3.48, -3.58, -2.72, -2.64, -1.77, -1.83, -1.9, -0.92, -0.89, 0.0, 0.0, 0.0, 0.0, 0.0, 0.0, 0.0, 0.0, 0.0, 0.0, 0.0, 0.0, 0.0, 0.0, 0.0, 0.0, 0.0, 1.69, 2.1, 2.1, 1.93, 2.19, 0.0, 0.0, 0.0, 0.0, 0.0, 0.0, 10.04, 8.85, 7.44, 3.47, -7.9, -9.33, -5.95, 1.9, 2.65, 0.0, -6.93, -12.51, -12.88, -11.16, -8.9, -2.84, -12.61, -13.86, -12.14, -11.06, -9.67, -10.12, -9.8, -11.44, -14.75, -0.0, -0.0, 0.0, 0.0, 0.0, 0.0, 0.0, 0.0, 0.0, -12.71, -12.71, -12.71, -12.71, -12.04, -12.37, -12.37, -12.37, -11.7, -11.34, -11.64, -11.64, -10.87, -10.43, -9.59, -9.34, -8.59, -8.29, -8.62, -8.03, -7.2, -6.35, -6.35, -5.67, -4.81, -4.81, -3.95, -3.38, -2.49, -2.56, -2.56, -1.77, -1.77, -1.83, -0.89, -0.92, -0.89, 0.0, 0.0, 0.0, 0.0, 0.0, 0.0, 0.0, 0.0, 0.0, 0.0, 0.0, 0.0, 0.0, 0.0, 0.0, 0.0, 0.0, 0.0, 0.0, 1.69, 1.91, 0.0, 0.0, 0.0, -2.82, 0.0, 8.22, 8.53, 8.22, 5.98, 6.67, 2.93, 0.0, 0.0, 5.75, 7.6, 8.01, 2.09, -5.65, -10.22, -9.92, -8.88, -7.57, -8.9, -15.01, -14.24, -12.79, -11.66, -10.58, -7.93, -2.35, 2.81, 3.58, 4.66, 0.0, 3.69, 3.07, 0.0, 0.0, 2.4, 2.4, -12.36, -12.36, -12.36, -12.36, -12.04, -12.04, -12.04, -11.7, -11.34, -11.34, -11.34, -11.24, -10.87, -10.43, -9.59, -9.34, -8.59, -8.06, -8.29, -7.5, -6.7, -6.07, -6.07, -5.25, -4.81, -4.81, -3.95, -3.28, -2.8, -2.55, -2.49, -1.77, -1.77, -1.72, -0.92, -0.89, -0.92, -0.92, -0.89, 0.0, 0.0, 0.0, 0.0, 0.0, 0.0, 0.0, 0.0, 0.0, 0.0, 0.0, 0.0, 0.0, 0.0, 0.0, 0.0, 0.0, 0.0, 0.0, 1.52, 0.0, 0.0, 0.0, 3.68, 7.9, 8.22, 5.0, 4.6, 5.2, 4.65, 5.4, 7.27, 8.38, 7.13, 5.4, 6.17, 0.0, -7.36, -10.4, -9.8, -8.41, -6.44, -6.64, -10.61, -11.06, -10.3, -7.82, -1.56, 2.43, 3.93, 3.81, 2.72, 3.47, 0.0, 2.5, 2.5, 2.21, 2.28, 2.28, -12.36, -12.36, -12.03, -12.04, -12.04, -12.04, -11.34, -11.34, -11.34, -10.94, -10.94, -10.59, -10.43, -10.43, -9.59, -9.34, -8.83, -8.06, -8.06, -7.5, -6.7, -6.7, -5.9, -5.25, -5.25, -4.66, -3.95, -3.83, -3.17, -2.72, -2.63, -2.55, -1.72, -1.72, -1.83, -1.83, -0.89, -0.96, -0.92, -0.96, -0.96, 0.0, 0.0, 0.0, 0.0, 0.0, 0.0, 0.0, 0.0, 0.0, 0.0, 0.0, 0.0, 0.0, 0.0, 0.0, 0.0, 0.0, 0.0, 0.0, 0.0, 0.0, 3.68, 4.8, 7.9, 6.2, 4.8, 6.17, 5.2, 7.78, 8.53, 7.15, 3.19, 0.0, 0.0, 1.78, 0.0, -14.75, -13.32, -8.68, -5.36, -4.12, -2.94, -2.22, -2.79, 0.0, 1.15, 1.89, 2.56, 3.25, 3.56, 2.2, 0.0, 0.0, 0.0, 2.15, 0.0, 0.0, -12.03, -12.03, -12.03, -11.72, -12.04, -12.04, -11.34, -11.34, -10.94, -10.94, -10.59, -10.15, -10.15, -10.43, -9.34, -8.83, -8.59, -8.06, -8.06, -7.29, -6.7, -6.51, -5.9, -5.9, -5.35, -4.66, -4.52, -4.52, -3.95, -3.28, -3.07, -2.47, -2.47, -2.55, -1.83, -1.83, -1.83, -1.96, -0.96, -0.99, -0.99, -0.96, -0.96, 0.0, 0.0, -0.93, 0.0, 0.0, 0.0, 0.0, 0.0, 0.0, 0.0, 0.0, 0.0, 0.0, 0.0, 0.0, 0.0, 0.0, 0.0, 3.53, 3.53, 5.0, 7.27, 7.59, 7.59, 8.38, 8.22, 10.01, 9.62, 7.51, 2.06, 0.0, -1.25, 2.07, 4.65, 3.44, -8.97, -11.48, -8.9, -6.31, -4.12, -2.25, -1.21, -0.95, 0.0, 0.8, 1.02, 1.11, 1.38, 1.55, 1.55, 0.0, 0.0, 0.0, 0.0, 0.0, -12.03, -12.03, -12.03, -11.72, -11.72, -11.7, -11.34, -11.34, -10.94, -10.59, -10.59, -10.15, -10.15, -9.95, -9.34, -8.83, -8.06, -8.06, -7.5, -7.5, -6.7, -6.51, -5.9, -5.9, -5.35, -5.35, -4.52, -4.52, -3.83, -3.83, -3.28, -3.17, -3.25, -2.47, -2.63, -2.72, -1.83, -1.96, -1.9, -0.96, -1.03, -0.99, -0.96, -0.93, -1.0, -0.97, -0.93, -0.93, 0.0, 0.0, 0.0, 0.0, 0.0, 0.0, 0.0, 0.0, 0.0, 0.0, 0.0, 1.14, 1.22, 2.82, 3.39, 7.9, 7.9, 7.9, 8.58, 9.58, 8.73, 8.53, 8.85, 7.13, 3.93, 1.11, 0.0, 2.25, 6.5, 7.45, 4.99, -1.2, -8.27, -9.99, -7.88, -5.46, -4.3, -2.3, -1.47, -0.98, 0.0, 0.0, 1.13, 3.04, 3.04, 1.55, 0.0, 0.0, 0.0, 0.0, -11.69, -11.69, -11.72, -11.72, -11.72, -11.38, -11.34, -11.34, -10.94, -10.59, -10.15, -10.15, -10.15, -9.34, -9.34, -8.83, -8.06, -7.5, -7.5, -6.89, -6.7, -6.51, -5.9, -5.72, -5.35, -5.35, -4.52, -4.52, -3.83, -4.04, -4.04, -3.28, -3.17, -2.47, -2.47, -2.63, -2.63, -1.9, -1.9, -1.9, -2.04, -0.99, -0.99, -0.96, -0.93, -0.93, -0.97, -0.97, -0.93, 0.0, 0.0, 0.0, 0.0, 0.0, 0.0, 0.0, 0.0, 0.0, 0.0, 1.14, 1.14, 2.17, 3.39, 5.7, 8.55, 7.9, 7.27, 7.59, 7.9, 7.9, 7.78, 8.3, 5.49, 4.38, 2.25, 1.09, 3.21, 5.01, 4.56, 1.62, -0.96, -6.14, -10.12, -7.54, -6.51, -4.43, -3.14, -3.29, -2.24, 0.0, 0.0, 4.1, 4.1, 1.83, 0.0, 0.0, 0.0, 0.0, -11.39, -11.39, -11.72, -11.72, -11.72, -11.03, -11.34, -11.34, -10.94, -10.59, -10.15, -10.15, -9.68, -9.68, -9.34, -8.83, -8.06, -7.5, -7.5, -6.89, -6.7, -5.9, -5.9, -5.1, -5.1, -5.35, -4.52, -4.52, -4.52, -4.04, -4.04, -3.28, -3.28, -3.36, -2.55, -2.47, -2.63, -2.63, -1.9, -1.9, -1.9, -1.97, -0.96, 0.0, -0.93, -0.93, -0.93, -0.97, -0.97, -1.01, 0.0, 0.0, 0.0, 0.0, 0.0, 0.0, 0.0, 0.0, 1.09, 1.09, 2.13, 2.28, 3.25, 6.95, 7.59, 6.2, 5.46, 5.7, 8.93, 7.59, 8.22, 8.3, 8.68, 8.4, 5.62, 1.12, -1.15, -2.11, -2.02, -0.86, 0.82, 1.02, -1.89, -9.17, -7.54, -6.43, -5.45, -3.56, -1.83, 0.0, 0.0, 4.24, 4.24, 2.2, 0.0, 0.0, 0.0, 0.0, -11.39, -11.39, -11.39, -11.72, -11.38, -11.03, -11.03, -10.65, -10.94, -10.94, -10.15, -9.88, -9.42, -9.42, -9.34, -8.59, -8.59, -7.5, -7.5, -6.89, -6.7, -6.07, -5.9, -5.1, -5.1, -4.95, -4.52, -4.52, -4.52, -3.83, -4.04, -3.28, -3.28, -3.28, -2.55, -2.55, -2.47, -2.63, -1.77, -1.9, -1.9, -1.83, -1.9, 0.0, -0.93, -0.93, -1.84, -1.98, -0.97, -1.01, -1.01, 0.0, 0.0, 0.0, 0.0, 0.0, 0.0, 0.0, 0.0, 1.09, 1.09, 2.28, 2.6, 4.2, 5.46, 7.59, 7.59, 7.27, 7.59, 7.9, 7.9, 9.17, 7.59, 6.87, 8.97, 7.88, 1.13, -4.18, -6.8, -5.78, -1.78, 0.0, 0.0, -1.63, -8.31, -8.05, -7.13, -4.38, -2.2, -2.63, 0.0, 0.0, 0.0, 0.0, 0.0, 0.0, -1.33, 0.0, -11.39, -11.39, -11.39, -11.06, -11.03, -11.03, -11.03, -10.65, -10.65, -10.65, -9.88, -9.88, -9.68, -9.68, -9.68, -8.83, -8.83, -8.06, -7.5, -7.29, -6.7, -6.51, -5.9, -5.72, -5.1, -4.95, -4.31, -4.52, -4.52, -3.83, -3.83, -4.04, -3.28, -3.28, -3.47, -2.64, -2.55, -2.47, -1.77, -1.77, -1.9, -1.83, -1.97, -1.84, -1.61, -0.89, -1.84, -1.98, -1.91, -1.01, -1.01, -0.97, 0.0, 0.0, 0.0, 0.0, 0.0, 0.0, 0.0, 1.04, 1.22, 2.28, 2.09, 3.11, 4.6, 7.27, 5.46, 7.27, 7.59, 7.9, 7.9, 8.22, 8.31, 7.76, 10.56, 15.15, 12.09, 2.97, -2.35, -7.34, -7.44, -6.0, -2.2, -1.21, -2.28, -8.58, -8.58, -5.48, -5.31, -5.15, -2.72, -2.72, -2.28, -2.72, -1.9, -1.9, -2.81, -1.33, -11.39, -11.39, -11.39, -11.06, -10.72, -10.72, -10.65, -10.65, -10.65, -9.88, -9.88, -10.15, -9.68, -9.68, -9.68, -9.17, -8.83, -8.06, -7.5, -7.29, -6.51, -6.51, -5.72, -5.72, -5.1, -4.95, -4.95, -4.52, -4.52, -4.52, -3.83, -3.91, -4.04, -3.28, -3.28, -3.47, -2.55, -2.55, -2.72, -1.83, -1.77, -1.83, -1.83, -1.77, -1.77, -1.48, -1.77, -1.84, -1.76, -0.89, -0.97, -0.93, -0.93, 0.0, 0.0, 0.0, 0.0, 0.0, 0.0, 0.0, 1.16, 1.16, 2.6, 3.11, 4.4, 4.6, 5.46, 4.8, 5.7, 7.9, 8.22, 8.22, 5.8, 5.15, 9.09, 12.85, 16.57, 13.06, 7.61, 3.36, 0.0, -5.48, -4.18, -1.46, -1.78, -6.8, -9.22, -9.22, -7.59, -8.58, -8.58, -8.58, -8.66, -7.13, -6.0, -5.11, -5.11, -5.11, -11.39, -11.39, -11.06, -11.06, -10.72, -10.35, -10.65, -10.65, -10.23, -9.88, -10.15, -9.68, -9.68, -9.68, -9.17, -9.17, -9.17, -8.06, -8.06, -7.29, -7.08, -6.51, -6.32, -5.72, -5.72, -5.1, -5.18, -5.18, -4.52, -4.52, -4.52, -4.04, -4.04, -4.04, -3.17, -3.47, -3.47, -2.64, -2.64, -2.72, -2.72, -2.63, -1.83, -1.83, -1.71, -1.71, -0.86, -0.82, -0.79, -0.85, -0.85, -0.82, -0.82, -0.89, 0.0, 0.0, 0.0, 0.0, 0.0, 0.0, 0.0, 1.11, 1.2, 0.0, 0.0, 3.11, 4.6, 4.6, 7.27, 9.3, 8.22, 5.0, 3.14, 3.96, 5.48, 5.65, 8.34, 13.13, 13.86, 11.69, 9.41, 8.37, 6.1, 4.2, 2.3, -1.83, -9.22, -11.17, -11.52, -10.12, -10.12, -11.17, -10.82, -9.48, -8.3, -6.43, -6.43, -6.43, -11.07, -11.07, -11.06, -11.06, -10.72, -10.35, -10.65, -10.65, -10.23, -9.88, -10.15, -9.68, -9.68, -9.68, -9.17, -9.17, -8.93, -8.39, -8.39, -7.08, -7.08, -6.32, -6.6, -5.99, -5.99, -5.99, -5.18, -5.18, -5.18, -4.52, -4.52, -4.76, -4.04, -4.04, -3.91, -3.47, -3.47, -3.47, -3.47, -3.69, -2.72, -2.63, -2.63, -2.54, -2.54, -1.71, -1.77, -0.83, -0.76, -0.79, -0.75, -0.75, -0.78, -0.78, 0.0, 0.0, 0.0, 0.0, 0.0, 0.0, 0.0, 0.0, 1.11, 0.0, 0.0, 0.0, 4.6, 4.8, 8.55, 7.9, 5.0, 2.6, 4.32, 3.56, 3.25, 2.98, 4.91, 9.19, 14.77, 15.85, 15.19, 14.48, 13.01, 9.8, 7.75, 5.07, 0.0, -12.65, -13.57, -12.79, -11.88, -11.88, -11.53, -10.3, -9.17, -9.17, -9.17, -9.17, -10.75, -10.75, -10.75, -11.06, -10.35, -10.35, -10.35, -9.95, -10.23, -9.88, -9.42, -9.42, -9.68, -8.93, -8.93, -8.93, -8.93, -8.16, -8.16, -7.08, -6.87, -6.6, -6.6, -6.6, -5.99, -5.81, -5.81, -5.18, -5.18, -5.18, -4.76, -4.76, -4.76, -4.04, -4.27, -4.27, -4.27, -3.47, -3.47, -3.69, -3.57, -3.57, -3.46, -2.54, -2.72, -2.62, -1.77, -1.71, -1.64, -0.86, -0.79, -0.75, -0.75, -0.72, -0.78, 0.0, 0.0, 0.0, 0.0, 0.0, 0.0, 0.0, 0.0, 0.0, 0.0, 0.0, 3.11, 6.64, 7.27, 5.95, 3.68, 4.6, 6.71, 5.6, 6.0, 5.81, 5.5, 6.81, 10.67, 15.44, 18.43, 17.76, 14.19, 11.58, 9.0, 8.0, 6.16, 0.0, -14.42, -13.67, -13.28, -11.2, -10.79, -9.96, -9.96, -9.62, -9.62, -9.62, -10.75, -10.75, -10.75, -10.75, -10.35, -10.06, -10.35, -9.95, -9.95, -10.23, -9.42, -9.42, -9.42, -8.93, -8.93, -8.68, -8.16, -8.16, -7.93, -7.38, -7.38, -6.6, -6.6, -6.6, -5.81, -5.81, -5.81, -5.18, -5.18, -5.18, -4.76, -4.76, -4.76, -4.76, -4.27, -4.27, -4.27, -4.27, -3.47, -3.69, -3.57, -3.46, -3.46, -3.34, -2.72, -2.62, -2.53, -2.53, -1.64, -1.77, -1.7, -0.82, -0.79, -0.75, -0.75, 0.0, 0.0, 0.0, 0.0, 0.0, 0.0, 0.0, 0.0, 0.0, 0.0, 0.0, 3.11, 4.0, 5.46, 5.7, 4.6, 7.59, 6.97, 5.6, 5.28, 4.87, 4.37, 4.73, 8.48, 11.72, 16.78, 17.93, 13.63, 10.52, 9.72, 8.26, 6.05, 4.49, -11.06, -14.75, -11.99, -11.21, -11.2, -10.41, -9.77, -9.66, -9.66, -9.66, -10.75, -10.75, -10.75, -10.4, -10.06, -10.06, -9.66, -9.95, -9.95, -9.95, -9.16, -9.16, -9.16, -8.68, -8.68, -8.68, -8.16, -7.93, -7.93, -7.38, -7.38, -6.6, -6.4, -6.4, -5.81, -5.81, -5.81, -5.18, -5.18, -5.18, -4.76, -4.76, -4.76, -4.76, -4.27, -4.27, -4.27, -4.27, -4.27, -3.57, -3.57, -3.46, -3.46, -3.34, -3.56, -2.62, -2.53, -2.53, -2.44, -1.77, -1.7, -1.63, -1.63, -0.79, -0.75, -0.82, -0.74, 0.0, 0.0, 0.0, 0.0, 0.0, 0.0, 0.0, 0.0, 0.0, 2.97, 2.97, 4.4, 6.95, 7.27, 7.9, 6.97, 3.96, 3.56, 3.25, 4.52, 5.19, 8.64, 10.99, 12.69, 14.64, 15.11, 14.22, 11.71, 8.32, 5.14, 2.8, 0.0, -0.0, -12.52, -12.27, -11.45, -11.21, -11.45, -12.07, -12.07, -12.07, -10.75, -10.75, -10.75, -10.09, -10.06, -10.06, -9.66, -9.66, -9.66, -9.5, -9.5, -9.16, -8.68, -8.68, -8.68, -7.93, -7.93, -7.93, -7.93, -7.38, -7.16, -6.6, -6.4, -6.4, -5.81, -5.81, -5.81, -5.81, -5.18, -5.45, -5.45, -4.76, -4.76, -4.76, -5.02, -4.27, -4.27, -4.27, -4.38, -4.38, -3.46, -3.46, -3.34, -3.34, -3.34, -2.62, -2.53, -2.53, -2.44, -2.61, -2.51, -1.7, -1.63, -1.63, -0.79, -0.82, -0.78, -0.74, -0.77, 0.0, 0.0, 0.0, 0.0, 0.0, 0.0, 0.0, 2.49, 3.11, 4.4, 6.95, 5.7, 7.59, 4.32, 3.82, 3.44, 5.28, 6.88, 8.58, 9.8, 11.06, 11.06, 11.9, 16.34, 17.94, 14.46, 8.56, 4.32, 1.43, 4.81, 6.44, 3.04, -8.53, -11.62, -10.6, -5.0, -3.39, -3.39, -3.39, -10.43, -10.43, -10.09, -10.09, -9.76, -9.38, -9.38, -9.66, -9.23, -9.23, -9.23, -8.9, -8.43, -8.43, -8.43, -7.93, -7.93, -7.93, -7.93, -7.16, -7.16, -6.4, -6.4, -6.4, -5.81, -5.81, -5.81, -5.81, -5.18, -5.45, -5.45, -5.62, -4.91, -4.91, -5.02, -5.02, -4.27, -4.13, -4.38, -4.24, -4.24, -3.34, -3.34, -3.34, -3.23, -2.62, -2.53, -2.53, -2.44, -2.61, -2.51, -2.51, -1.7, -1.63, -1.56, -1.69, -0.82, -0.78, -0.77, -0.73, 0.0, 0.0, 0.0, 0.0, 0.0, 0.0, 1.93, 4.4, 3.11, 4.4, 2.39, 0.0, 4.15, 3.82, 5.6, 7.19, 8.59, 9.48, 10.77, 9.8, 9.77, 10.47, 14.22, 16.03, 13.54, 6.81, 1.21, 0.0, 5.2, 8.85, 5.4, -0.0, -2.6, -3.39, -2.49, -2.39, -2.39, -2.39, -10.09, -10.09, -10.09, -10.09, -9.76, -9.38, -9.38, -9.38, -8.96, -9.23, -9.23, -8.43, -8.43, -8.43, -8.43, -8.16, -7.93, -7.93, -7.16, -7.16, -6.95, -6.4, -6.4, -6.4, -6.4, -5.81, -5.81, -5.81, -5.18, -5.45, -5.62, -5.62, -4.91, -5.18, -5.02, -5.02, -4.27, -4.13, -4.38, -4.24, -4.24, -4.1, -3.34, -3.23, -3.44, -3.44, -2.53, -2.53, -2.44, -2.44, -2.61, -2.51, -1.7, -1.63, -1.63, -1.69, -1.62, -0.78, -0.81, -0.77, -0.73, -0.69, 0.0, 0.0, 0.0, 0.0, 0.0, 2.49, 3.82, 2.02, 2.49, 3.11, 0.0, 4.15, 6.21, 6.44, 10.12, 10.79, 11.28, 10.43, 9.8, 9.8, 10.47, 10.41, 8.96, 2.66, 1.08, 0.0, 0.0, 11.18, 11.62, 2.82, -0.0, -2.6, -2.02, -1.93, -1.93, -1.93, -10.09, -9.78, -9.78, -9.78, -9.09, -9.09, -9.09, -9.38, -8.96, -8.96, -8.96, -8.51, -8.43, -8.68, -8.68, -7.93, -7.93, -7.69, -7.16, -6.95, -6.95, -6.95, -6.4, -6.4, -6.4, -5.81, -5.81, -5.81, -5.35, -5.62, -5.62, -5.62, -4.91, -4.91, -5.02, -5.02, -4.27, -4.13, -4.38, -4.24, -4.24, -4.1, -4.1, -3.23, -3.44, -3.32, -3.32, -2.53, -2.44, -2.44, -2.61, -2.61, -1.7, -1.63, -1.63, -1.69, -1.62, -1.54, -0.74, -0.81, -0.77, -0.73, -0.69, 0.0, 0.0, 0.0, 0.0, 0.0, 1.93, 2.02, 3.98, 3.98, 0.0, 0.0, 2.71, 6.97, 10.73, 12.3, 11.99, 9.8, 9.42, 8.78, 8.78, 5.71, 2.91, 1.75, 2.16, 1.98, 0.0, 0.0, -2.71, -0.0, -0.0, -2.19, -2.1, -1.93, -1.93, -1.93, -9.78, -9.78, -9.78, -9.46, -9.09, -9.09, -9.09, -8.69, -8.69, -8.96, -9.23, -8.76, -8.68, -8.43, -7.93, -7.93, -7.69, -7.69, -6.95, -6.95, -6.95, -6.95, -6.4, -6.4, -6.4, -6.4, -5.81, -5.99, -5.99, -5.62, -5.62, -5.62, -4.91, -4.91, -5.02, -5.02, -4.87, -4.13, -4.0, -4.24, -4.1, -4.1, -3.96, -3.23, -3.44, -3.32, -3.32, -3.32, -2.53, -2.44, -2.44, -2.61, -1.77, -1.7, -1.63, -1.69, -1.62, -1.54, -1.47, -1.6, -0.77, -0.73, -0.8, -0.76, -0.76, 0.0, 0.0, 0.0, 0.0, 0.0, 1.93, 2.02, 2.1, 0.0, 0.0, 7.9, 11.21, 12.14, 11.12, 9.17, 9.48, 9.13, 8.18, 3.53, 2.85, 1.85, 3.59, 6.6, -12.07, -10.8, -8.22, -12.96, -2.28, -2.28, -2.1, -2.02, -2.02, -2.02, -9.48, -9.48, -9.48, -8.81, -9.09, -9.09, -9.09, -8.69, -8.96, -9.23, -9.23, -8.76, -8.76, -8.43, -8.43, -7.69, -7.69, -7.69, -6.95, -6.95, -6.95, -6.95, -6.4, -6.4, -6.4, -6.6, -5.99, -5.99, -6.28, -5.62, -5.62, -5.62, -5.62, -4.76, -5.02, -5.02, -4.87, -4.13, -4.0, -4.0, -4.1, -4.1, -3.23, -3.23, -3.23, -3.32, -3.32, -3.32, -2.53, -2.53, -2.53, -2.71, -1.77, -1.7, -1.63, -1.56, -1.62, -1.54, -1.47, -1.6, -1.52, -1.44, -1.36, -0.76, -0.76, -0.76, -0.84, -0.94, 0.0, 0.0, 0.0, 0.0, 0.0, 0.0, 2.49, 8.58, 11.4, 11.84, 11.2, 9.77, 9.96, 9.02, 7.22, 7.25, 5.82, 4.3, 8.97, 13.41, -12.07, -11.46, -11.18, -8.94, -6.71, -4.15, -2.1, -2.02, -2.02, -2.02, -9.48, -9.48, -9.48, -9.13, -8.81, -9.09, -9.09, -8.96, -8.96, -8.96, -8.96, -8.76, -8.51, -8.51, -8.18, -7.69, -7.69, -7.69, -7.69, -6.95, -7.16, -7.16, -7.16, -6.6, -6.6, -6.6, -6.8, -6.17, -6.28, -6.28, -5.62, -5.62, -5.45, -5.45, -5.02, -4.87, -4.87, -4.87, -4.71, -4.0, -3.87, -4.1, -3.96, -3.23, -3.23, -3.11, -3.32, -3.32, -2.53, -2.53, -2.53, -2.53, -2.61, -1.7, -1.63, -1.56, -1.5, -1.54, -1.47, -1.47, -1.52, -1.44, -1.36, -1.49, -1.58, -1.58, -1.58, -1.75, -2.02, -2.6, -2.6, 0.0, 0.0, 0.0, 2.39, 5.46, 10.73, 11.62, 11.62, 9.77, 9.77, 9.48, 10.08, 10.28, 7.49, 6.05, 15.69, 2.37, -5.95, -9.58, -7.9, -8.22, -8.22, -6.2, -3.53, -0.0, -0.0, -0.0, -9.48, -9.48, -9.13, -9.13, -9.09, -9.09, -9.09, -9.09, -8.96, -8.96, -8.96, -8.96, -8.51, -8.51, -8.18, -7.69, -7.69, -7.69, -7.69, -7.69, -7.16, -7.16, -7.16, -7.38, -6.8, -6.8, -7.11, -6.9, -6.28, -6.28, -6.28, -5.45, -5.45, -5.45, -5.73, -5.55, -4.87, -4.71, -4.71, -4.55, -4.81, -4.1, -3.96, -3.96, -3.23, -3.11, -3.11, -3.32, -3.32, -2.53, -2.53, -2.53, -2.61, -2.51, -2.41, -1.56, -1.5, -1.54, -1.54, -1.47, -1.52, -1.44, -1.44, -1.44, -1.58, -1.58, -1.67, -1.84, -2.06, -2.1, -2.6, -2.6, 0.0, 0.0, 0.0, 0.0, 7.27, 11.18, 11.03, 9.66, 10.01, 7.93, 7.26, 5.77, 5.61, 4.04, 8.0, -0.0, -0.0, -3.53, -5.2, -6.97, -8.22, 0.0, 0.0, 7.27, 7.27, 7.27, -9.48, -9.48, -9.13, -9.13, -9.13, -8.81, -8.81, -9.09, -8.69, -8.69, -8.69, -8.69, -8.51, -8.51, -8.51, -8.51, -7.69, -7.93, -7.93, -7.93, -7.38, -7.38, -7.38, -7.38, -6.8, -7.11, -7.11, -6.9, -6.28, -6.28, -6.09, -6.09, -5.45, -5.45, -5.55, -5.55, -5.55, -4.71, -4.71, -4.55, -4.81, -4.81, -3.96, -3.96, -3.96, -3.23, -3.11, -3.32, -3.32, -3.32, -2.53, -2.44, -2.34, -2.51, -2.41, -2.31, -2.21, -1.62, -1.54, -1.47, -1.47, -1.52, -1.44, -1.44, -1.58, -1.67, -1.67, -1.67, -2.69, -3.82, -2.02, -2.6, 0.0, 0.0, 0.0, 0.0, 0.0, 10.28, 10.73, 8.22, 5.8, 4.38, 1.94, 0.0, 0.0, 1.32, 0.0, -16.99, -2.13, -2.19, -2.28, -0.0, -0.0, 5.2, 6.71, 6.71, 6.71, 6.71, -9.48, -9.48, -9.48, -9.13, -9.13, -9.13, -9.13, -8.81, -8.42, -8.69, -8.69, -8.96, -8.51, -8.51, -8.76, -8.76, -8.26, -7.93, -7.93, -7.93, -7.93, -7.38, -7.38, -7.38, -7.48, -7.11, -6.9, -6.9, -6.69, -6.09, -6.09, -6.09, -6.09, -5.28, -5.55, -5.55, -5.38, -4.71, -4.71, -4.55, -4.55, -4.81, -3.96, -3.96, -3.96, -3.96, -3.11, -3.11, -3.32, -3.32, -3.32, -2.44, -2.34, -2.34, -2.41, -2.31, -2.21, -2.39, -2.28, -2.17, -2.17, -2.23, -2.12, -2.23, -2.23, -2.44, -2.57, -2.57, -2.57, -3.25, -3.82, -2.49, -2.39, 0.0, 0.0, 0.0, 4.2, 6.64, -0.0, 0.0, 0.0, 0.0, 0.0, -1.45, -1.31, -1.26, 0.0, -1.52, -8.93, -13.86, 0.0, 12.96, 5.8, 7.78, 8.85, 8.85, 8.85, 8.85, -9.17, -9.17, -9.17, -9.13, -9.13, -9.13, -9.13, -9.13, -8.81, -8.69, -8.69, -8.96, -8.51, -8.76, -8.76, -8.76, -8.26, -8.26, -7.93, -7.93, -7.93, -7.16, -7.38, -7.38, -7.48, -6.9, -6.9, -6.69, -6.69, -6.69, -6.09, -6.09, -6.09, -5.9, -5.55, -5.38, -5.38, -5.38, -4.55, -4.55, -4.55, -4.55, -4.1, -3.96, -3.96, -3.96, -3.82, -3.11, -3.11, -3.32, -3.19, -3.07, -2.34, -2.25, -2.25, -2.31, -2.31, -2.21, -2.28, -2.17, -2.06, -2.06, -2.23, -2.23, -2.23, -2.44, -2.57, -2.57, -2.57, -2.57, -2.97, -4.15, -2.49, -2.28, 0.0, 0.0, 0.0, 9.83, -0.0, 0.0, 0.0, 0.0, -1.63, -2.52, -2.66, -2.51, -1.01, 0.0, 0.0, 0.0, 0.0, 0.0, 2.63, 6.9, 8.1, 7.19, 7.19, 7.19, -9.17, -9.17, -8.83, -8.83, -8.83, -9.13, -9.13, -9.13, -8.42, -8.69, -8.69, -8.96, -8.51, -8.76, -8.76, -8.76, -8.26, -8.26, -8.26, -7.93, -7.69, -7.16, -7.38, -7.38, -7.48, -6.9, -6.69, -6.69, -6.69, -6.69, -6.09, -6.09, -5.9, -5.9, -6.2, -5.38, -5.38, -5.2, -5.2, -4.55, -4.55, -4.55, -4.55, -4.1, -3.96, -3.96, -3.82, -3.82, -3.82, -3.11, -3.19, -3.07, -3.07, -2.25, -2.15, -2.31, -2.31, -2.21, -2.28, -2.17, -2.17, -2.06, -2.23, -2.23, -2.23, -2.23, -2.57, -2.57, -2.57, -2.57, -2.7, -3.53, -4.6, -3.39, -2.28, -1.62, 0.0, 9.83, 7.27, 0.0, -5.4, -4.1, -3.1, -2.38, -2.45, -1.32, 0.0, 1.03, 1.87, 2.07, 1.12, 1.5, 3.58, 4.1, 5.8, 5.11, 5.11, 5.11, -9.17, -9.17, -8.83, -8.83, -8.83, -8.83, -8.83, -9.13, -8.42, -8.69, -8.69, -8.96, -8.51, -8.51, -8.51, -8.51, -8.51, -8.01, -8.01, -8.01, -8.01, -7.16, -7.16, -7.16, -7.48, -6.69, -6.69, -6.69, -6.69, -6.69, -6.69, -5.9, -5.9, -5.9, -6.0, -5.38, -5.38, -5.2, -5.2, -4.55, -4.55, -4.55, -4.55, -3.73, -3.73, -3.96, -3.82, -3.82, -3.82, -3.68, -2.99, -3.07, -3.07, -2.95, -2.95, -2.82, -2.31, -2.21, -2.11, -2.28, -2.17, -2.06, -2.06, -2.23, -2.23, -2.23, -2.35, -2.57, -2.57, -2.57, -2.7, -2.7, -3.3, -2.82, -1.84, -1.62, 0.0, 5.46, 10.28, 10.73, 0.0, -4.1, -3.01, -3.58, -1.25, 0.0, 2.19, 2.97, 3.05, 4.14, 4.4, 4.49, 4.73, 4.11, 4.1, 3.56, 3.56, 3.56, -9.17, -9.17, -8.83, -8.83, -8.83, -8.83, -8.83, -9.13, -8.42, -8.69, -8.69, -8.96, -8.51, -8.51, -8.51, -8.51, -8.51, -8.01, -8.01, -8.01, -8.01, -7.16, -7.16, -7.16, -7.48, -6.69, -6.69, -6.69, -6.69, -6.69, -6.69, -5.9, -5.9, -5.9, -6.0, -5.38, -5.38, -5.2, -5.2, -4.55, -4.55, -4.55, -4.55, -3.73, -3.73, -3.96, -3.82, -3.82, -3.82, -3.68, -2.99, -3.07, -3.07, -2.95, -2.95, -2.82, -2.31, -2.21, -2.11, -2.28, -2.17, -2.06, -2.06, -2.23, -2.23, -2.23, -2.35, -2.57, -2.57, -2.57, -2.7, -2.7, -3.3, -2.82, -1.84, -1.62, 0.0, 5.46, 10.28, 10.73, 0.0, -2.45, -3.25, -2.56, -1.23, 0.0, 2.25, 3.93, 4.87, 6.04, 5.78, 5.79, 6.12, 4.3, 3.41, 3.14, 3.14, 3.14]}]